GEFSSGP_500_meanwind_180.txt.gz
Wind_Speed
2 1 2 2 2 1 0 1 1 1 1 0 0 0 1 2 2 3 3 3 2 2 1 2 2 2 2 2 3 3 3 4 4 4 4 4 5 5 5 5 5 6 6 7 7 7 7 8 8
2 2 2 2 1 0 1 2 2 1 1 1 1 1 2 2 3 3 3 3 3 3 3 3 2 2 3 4 5 4 4 5 5 4 5 5 5 6 6 6 6 6 7 7 7 8 8 8 9
2 1 1 1 1 1 2 2 2 2 2 2 3 3 4 3 3 4 4 4 4 4 4 4 3 3 4 5 5 5 5 5 5 5 5 5 5 6 7 7 6 6 7 7 7 8 9 9 10
1 1 1 2 2 2 2 2 2 3 3 4 5 5 5 5 5 4 5 5 5 5 5 4 3 4 5 5 5 5 5 5 5 5 5 5 5 6 6 5 6 6 7 7 7 8 9 9 10
2 1 1 2 3 3 3 3 4 5 5 5 5 5 5 5 5 5 6 6 6 6 5 4 4 5 5 5 5 5 5 5 5 5 5 5 5 6 5 5 5 7 7 7 7 7 8 9 9
2 2 2 3 3 3 3 4 5 6 6 6 6 6 6 6 5 5 6 6 7 7 6 4 5 6 6 6 6 6 6 5 5 5 5 5 5 5 5 5 5 6 6 7 7 7 7 8 9
3 3 3 4 4 4 4 5 6 6 7 7 6 6 6 6 6 6 6 6 7 7 6 5 5 6 6 6 6 5 5 5 5 5 5 5 5 5 5 5 5 5 6 6 7 7 8 8 9
4 4 4 5 5 5 5 6 6 6 7 7 7 6 6 6 6 6 6 6 6 6 5 5 6 5 5 6 6 5 6 5 5 5 4 4 5 5 4 5 5 5 5 6 6 7 8 8 8
4 4 4 5 5 5 6 6 6 7 7 7 7 7 7 6 6 6 6 5 5 6 5 5 5 5 5 5 6 5 5 4 5 5 4 4 4 5 4 5 5 5 5 4 5 6 7 8 8
5 5 5 5 5 6 6 7 7 7 8 8 7 8 7 6 5 6 5 5 6 6 5 5 5 5 5 4 4 4 4 4 4 4 3 4 4 4 4 4 4 4 4 3 3 4 7 8 8
5 6 6 6 6 6 7 7 8 8 8 8 8 8 7 6 6 6 6 5 5 5 5 5 5 5 5 4 4 4 4 3 3 2 2 2 3 3 3 3 3 3 4 3 3 4 5 6 7
6 7 7 7 7 7 7 7 8 8 8 8 7 7 7 7 6 6 6 5 5 5 5 5 5 5 5 4 3 3 4 3 2 2 2 2 2 2 1 1 2 2 3 3 3 3 4 5 6
7 7 8 7 7 7 8 8 8 8 8 8 8 7 6 7 6 5 5 5 5 6 6 6 5 5 4 4 3 3 3 2 2 3 2 2 1 1 1 0 0 1 2 2 2 2 4 4 5
8 8 7 7 8 8 8 8 8 8 8 7 7 7 6 6 6 5 5 5 6 6 6 6 5 5 4 4 3 3 2 2 2 2 2 1 1 1 1 1 0 1 1 2 2 3 3 4 5
8 8 8 8 9 9 9 9 8 8 8 8 7 7 7 7 6 6 5 6 6 6 6 6 5 5 4 3 3 2 2 2 2 1 1 1 1 0 0 0 0 1 1 2 2 3 3 4 4
9 9 9 9 9 9 10 10 9 9 9 8 7 7 7 7 6 6 6 6 6 6 6 6 5 5 4 4 3 2 2 1 1 1 1 1 1 0 0 0 1 1 2 2 2 3 4 4 4
9 10 10 10 10 10 10 11 11 10 10 9 8 8 8 7 7 6 6 6 6 6 6 6 6 6 5 4 3 3 2 1 1 1 1 1 0 0 1 1 1 1 2 2 3 4 4 4 4
10 10 10 10 10 11 11 11 11 11 11 10 10 9 9 8 7 7 7 6 6 7 7 7 7 6 5 4 4 3 2 1 1 1 1 0 1 1 1 1 1 2 2 3 3 4 5 4 4
10 10 10 10 10 10 10 11 12 11 11 11 10 9 9 9 9 8 7 7 7 7 7 8 7 7 6 5 4 3 2 1 2 1 1 1 1 1 1 1 2 2 3 4 4 4 5 5 4
10 10 10 10 10 10 10 10 11 11 11 11 10 9 9 10 10 9 8 8 8 8 8 8 8 7 6 5 5 4 3 2 2 2 2 2 2 2 2 3 3 3 3 4 4 4 4 4 3
10 10 10 10 11 11 10 10 11 11 11 10 10 10 10 10 10 10 9 8 8 8 8 8 8 8 7 6 5 4 3 3 2 2 2 2 2 2 3 3 3 3 3 4 4 4 4 4 3
11 11 10 10 10 10 10 10 11 11 10 10 9 10 10 10 10 10 9 9 9 9 8 8 8 8 7 6 5 4 4 3 2 2 3 2 2 2 3 3 3 3 3 4 4 4 4 4 4
12 11 11 11 11 11 10 10 10 10 9 9 9 10 10 10 10 10 10 10 9 9 9 9 9 8 8 7 6 5 4 4 3 2 3 2 2 3 3 3 3 3 4 4 4 4 4 4 4
13 12 11 11 11 11 11 11 10 10 10 9 9 10 10 10 10 10 10 10 10 10 10 10 10 9 8 7 7 6 5 5 4 3 3 3 3 4 4 4 3 3 4 4 4 4 3 3 3
13 12 12 12 12 12 12 11 11 11 11 10 9 10 10 11 10 10 10 10 11 11 10 10 10 10 9 9 8 8 7 6 5 4 3 4 4 4 4 4 3 4 4 4 4 3 3 3 2
14 14 13 13 13 12 12 12 12 11 11 10 10 10 10 10 11 11 11 12 12 12 12 11 11 11 10 9 9 9 8 8 7 6 5 5 5 4 4 4 4 4 3 3 3 3 3 2 1
16 15 15 15 14 13 13 12 12 12 12 11 10 10 11 11 11 11 11 12 12 12 12 12 12 12 11 10 10 10 10 9 7 7 5 5 5 5 4 4 3 3 3 2 2 2 2 1 1
18 17 16 15 15 14 13 13 13 13 12 12 12 11 11 11 10 11 11 12 12 13 13 13 12 12 12 11 11 11 11 10 9 7 6 6 6 5 4 4 3 3 3 3 2 2 2 2 1
19 18 17 17 16 15 14 14 13 13 13 13 12 12 11 11 11 11 12 12 13 13 13 14 13 13 13 12 12 12 11 11 10 9 8 7 7 6 5 5 4 4 4 4 4 3 3 2 2
20 19 19 18 17 17 16 16 14 14 14 13 13 13 12 11 11 12 13 13 13 14 14 14 14 13 13 13 12 12 12 12 11 10 9 9 8 7 7 6 6 5 5 5 4 4 4 3 4

GEFSSGP_500_meanwind_186.txt.gz
Wind_Speed
2 2 2 1 1 2 2 3 3 4 5 4 4 3 4 5 6 6 6 6 6 6 6 6 7 7 7 6 6 6 6 5 5 6 5 6 5 5 6 6 6 6 7 7 8 8 9 8 9
2 1 1 1 1 2 2 3 4 4 5 5 4 4 5 6 6 7 7 7 7 7 7 7 8 8 8 7 7 7 7 6 6 6 6 6 5 5 6 6 6 6 7 7 8 8 8 8 9
2 1 1 1 2 3 3 4 4 4 5 6 6 6 6 7 7 7 7 8 8 7 8 8 8 8 8 7 7 7 8 7 6 6 6 6 5 6 6 6 7 7 7 8 8 8 8 9 9
2 2 2 2 3 4 4 5 5 6 7 7 7 7 7 8 8 8 8 8 8 8 9 9 9 8 8 7 7 7 8 7 6 6 6 6 6 6 6 7 8 8 7 8 8 9 8 9 9
2 2 3 3 4 5 5 6 6 7 7 8 8 8 8 8 8 8 9 8 9 9 9 9 8 8 8 7 7 7 7 6 7 7 6 6 6 5 5 6 7 8 8 8 8 9 8 9 9
3 4 4 4 5 5 6 7 8 8 8 9 9 9 9 8 9 9 9 9 10 9 9 8 8 8 8 8 8 7 7 7 6 6 6 6 6 6 6 6 6 6 7 7 8 8 8 9 9
4 4 5 5 5 6 7 8 8 8 9 9 9 9 9 9 9 9 9 10 10 9 8 8 8 9 8 8 8 8 8 8 7 6 6 6 6 6 6 6 6 6 6 7 8 8 8 8 8
5 5 5 6 6 7 8 8 9 9 9 9 9 9 9 9 9 10 10 9 9 9 7 7 8 8 8 8 7 7 7 7 7 7 6 6 6 6 6 6 6 6 6 6 6 6 7 7 7
5 5 6 6 7 8 8 8 9 9 10 10 9 10 9 9 10 10 9 8 8 7 7 6 7 7 7 7 6 6 7 7 7 7 6 5 6 6 6 6 6 5 5 4 4 5 5 6 6
6 6 7 7 8 9 9 9 10 10 10 10 10 10 10 10 10 9 9 8 8 7 7 6 7 7 6 7 7 6 6 7 7 6 6 5 5 5 5 5 5 5 4 4 3 4 5 6 6
7 7 7 8 9 9 10 10 10 10 11 10 10 10 10 10 10 10 9 8 8 8 7 7 7 7 7 7 7 7 6 6 6 6 4 4 5 4 4 4 4 4 4 3 3 4 5 5 5
7 7 8 9 10 10 10 10 10 11 11 10 10 10 10 10 9 9 9 9 8 8 8 8 7 7 7 7 6 6 5 6 6 5 4 4 4 4 4 4 4 3 3 3 2 2 3 2 3
8 8 8 9 10 10 10 11 11 11 11 10 10 10 10 10 9 9 9 9 9 9 9 9 8 8 7 6 6 5 5 5 5 5 4 4 3 4 4 3 3 2 3 2 2 2 1 2 2
9 9 9 9 10 11 11 11 11 10 10 10 10 10 10 9 9 9 9 8 8 9 9 8 8 7 6 5 4 4 5 5 5 5 4 4 4 4 4 3 2 2 2 1 1 2 2 2 2
9 9 9 9 10 11 11 11 11 11 10 10 10 10 10 9 9 9 9 8 8 8 8 7 6 5 5 5 4 4 4 4 5 5 5 4 4 4 3 3 2 2 1 1 1 1 1 1 1
9 10 9 10 10 12 12 12 11 11 10 10 10 10 10 10 9 8 7 8 9 8 7 7 6 5 4 4 3 4 4 4 5 5 5 4 4 4 4 3 2 2 2 2 1 1 1 0 1
10 10 10 10 11 12 12 12 12 12 11 11 11 11 10 10 9 8 8 8 9 8 7 6 5 5 4 5 4 3 4 4 4 4 4 4 3 4 4 3 2 2 2 2 1 1 1 0 1
10 10 11 11 11 11 12 12 12 12 11 11 11 11 11 10 10 9 9 8 8 7 6 6 5 5 4 4 3 3 4 4 3 4 4 3 3 3 3 3 2 1 1 1 1 1 1 1 0
10 11 11 11 11 12 11 11 11 11 11 11 12 12 11 10 10 9 9 9 8 7 6 5 5 5 4 3 3 3 3 3 3 4 3 2 2 3 2 2 2 1 1 2 1 0 1 1 0
10 11 11 11 11 11 12 11 12 11 11 12 12 12 11 11 11 10 10 9 7 7 6 6 5 5 4 4 4 3 3 3 3 3 3 2 2 2 2 1 1 1 1 1 1 0 0 1 1
11 11 12 12 11 11 11 11 12 12 12 12 12 12 11 12 11 10 9 8 7 7 7 6 5 5 4 4 4 3 3 3 3 2 2 2 2 2 1 1 1 1 1 1 0 1 1 1 1
12 12 12 12 12 11 11 11 11 12 12 12 12 12 12 12 11 10 9 8 7 7 7 6 5 5 5 4 4 4 3 3 3 2 2 2 1 1 1 0 0 1 1 0 1 1 1 1 0
13 12 12 12 12 11 11 12 12 13 13 12 12 12 11 11 10 10 10 9 8 7 7 7 6 5 5 5 4 4 4 3 3 3 3 2 1 1 1 0 0 0 1 1 1 1 1 1 1
13 13 13 12 12 12 11 12 13 14 14 13 12 12 11 11 10 10 10 10 9 8 8 8 7 6 6 5 5 5 4 4 3 3 3 2 2 1 0 0 1 1 1 1 1 1 1 1 1
14 14 13 12 11 12 13 13 14 14 14 14 13 13 12 11 10 10 10 10 10 10 9 8 8 7 7 6 6 5 5 4 4 3 3 2 2 1 1 1 1 1 1 1 1 1 1 1 2
15 14 13 11 10 11 13 14 15 15 14 14 14 13 13 11 11 11 11 11 10 10 10 9 8 8 7 7 6 6 6 5 4 4 3 3 3 2 1 0 1 2 2 1 1 0 1 2 2
16 15 14 14 13 13 13 14 16 16 15 14 14 14 13 12 12 12 12 12 11 11 10 10 9 9 8 8 7 7 6 6 5 4 4 4 3 2 2 1 1 2 2 1 1 1 2 2 3
18 16 16 16 15 13 14 15 16 16 15 15 15 14 14 13 13 12 12 13 12 12 11 10 10 10 9 9 8 8 7 7 6 6 5 5 4 4 3 3 2 2 2 2 2 2 3 3 4
18 18 18 18 17 15 14 16 18 17 16 16 16 15 14 14 13 13 13 13 13 13 12 11 10 11 10 10 10 9 8 8 7 7 6 6 6 5 5 4 4 4 4 3 3 3 3 4 4
20 20 19 19 18 17 17 19 19 18 17 17 17 16 15 14 14 14 14 14 14 13 13 11 11 11 11 11 11 11 10 9 8 8 8 7 6 6 6 5 6 5 5 5 5 4 4 4 5

GEFSSGP_500_meanwind_192.txt.gz
Wind_Speed
2 1 1 1 1 2 1 2 4 5 5 4 3 2 3 4 5 4 5 5 5 4 5 6 6 6 7 7 7 6 6 6 6 6 6 7 7 7 8 9 9 9 9 9 10 10 10 10 10
1 1 1 1 2 2 2 3 3 3 3 3 2 3 4 4 5 4 5 5 5 6 6 5 6 6 7 8 7 7 7 7 6 7 7 7 7 7 8 9 9 9 10 10 10 11 10 10 10
1 1 1 2 2 2 2 3 3 3 3 3 3 3 5 5 5 5 6 6 6 6 6 5 6 7 7 7 8 7 7 6 7 7 7 7 7 6 7 8 8 9 9 9 10 10 10 10 10
1 1 2 3 3 4 4 3 3 3 4 4 4 4 5 6 5 6 6 6 6 6 6 6 7 7 7 7 7 7 6 5 5 6 6 6 6 6 7 7 8 8 8 9 9 10 10 10 10
2 2 3 4 4 4 5 4 4 4 4 4 4 5 5 5 6 6 7 7 7 7 7 6 6 6 6 7 6 5 4 5 5 5 5 6 6 6 7 7 6 7 8 8 9 9 9 9 9
2 3 4 4 4 4 4 5 5 4 5 5 5 5 6 6 6 6 7 7 7 7 7 6 7 6 7 6 5 4 5 4 5 5 5 5 6 6 6 7 6 6 7 8 8 9 9 9 9
3 3 4 4 4 4 4 5 6 6 6 6 6 6 6 7 7 7 8 8 8 7 7 6 6 6 5 5 5 5 5 4 5 5 5 6 6 6 5 6 6 5 6 7 8 8 8 8 9
4 4 4 4 5 4 5 5 6 6 7 7 7 7 7 7 8 8 8 8 8 7 6 5 5 5 5 5 5 5 5 5 5 5 5 5 5 5 5 6 5 5 5 6 7 7 7 7 7
4 4 5 5 5 5 5 6 6 7 7 8 8 7 8 8 9 9 9 8 8 7 6 5 5 5 5 5 5 5 5 4 5 5 4 5 5 5 5 5 5 5 5 5 5 6 7 7 7
4 5 5 5 5 6 6 6 7 7 8 8 8 8 8 8 9 9 8 8 7 7 6 5 5 5 5 5 5 5 4 4 4 4 4 4 4 4 4 4 4 4 4 4 4 6 6 6 6
5 5 6 6 5 6 6 6 7 7 8 8 8 8 8 8 8 8 7 7 7 6 6 6 5 4 4 4 4 4 4 4 3 3 3 3 3 3 4 3 4 4 3 4 4 5 5 5 5
5 5 6 6 6 6 6 7 7 8 8 8 7 7 8 8 8 7 7 6 7 6 6 6 5 4 3 4 3 3 4 3 3 2 3 3 2 2 2 3 3 3 3 3 4 4 5 5 5
6 6 6 7 6 6 7 7 8 8 8 7 7 7 7 8 8 7 6 5 6 7 7 5 4 3 3 3 3 3 3 3 2 2 2 2 2 2 2 2 2 2 3 3 4 3 3 4 4
6 6 6 7 7 7 7 7 7 7 7 7 7 7 8 8 7 6 6 6 7 7 6 5 4 3 2 3 3 2 2 2 2 3 3 3 2 2 2 2 1 2 2 3 3 2 2 3 3
6 7 7 7 7 7 8 7 7 7 7 7 8 8 8 8 7 7 6 7 7 7 6 5 4 3 2 3 3 2 2 2 2 3 3 3 3 3 2 2 2 1 2 3 2 2 2 2 2
7 7 7 7 7 8 8 8 8 7 7 7 8 8 7 8 7 7 7 7 7 6 6 5 4 3 2 2 2 2 2 2 2 2 3 3 2 2 1 1 2 2 2 2 2 1 1 1 2
7 7 7 8 7 7 7 7 7 7 7 7 7 8 7 7 7 7 7 6 6 6 5 4 4 3 2 2 2 2 2 2 2 2 3 2 2 1 1 1 1 2 3 3 2 2 1 1 1
7 7 7 7 7 7 7 7 7 7 6 7 7 7 8 7 6 6 6 6 5 5 4 4 3 3 2 2 2 2 2 1 2 2 2 2 1 1 1 1 1 2 3 3 2 2 1 1 1
8 8 8 8 8 7 6 7 6 7 7 6 7 7 7 7 6 6 6 5 4 4 4 4 3 2 2 3 3 2 2 2 2 2 2 2 1 0 0 1 1 2 3 3 2 2 2 1 1
8 8 8 9 8 8 7 7 6 7 6 7 7 7 6 6 6 6 6 5 4 4 4 3 3 2 3 3 3 3 2 2 2 2 2 2 1 0 0 1 2 2 2 2 2 2 2 2 1
9 9 9 9 9 9 8 7 7 7 7 7 7 7 6 6 6 6 6 6 5 5 4 4 3 3 3 4 4 3 2 2 2 2 2 1 1 0 1 1 2 2 2 2 2 1 2 2 2
10 9 10 9 9 9 9 7 6 7 7 7 7 7 6 5 5 6 6 6 6 5 4 4 4 4 4 4 4 3 3 3 2 2 1 1 1 0 1 1 1 2 2 2 2 1 2 2 2
11 10 10 11 10 10 10 9 6 7 7 7 6 7 6 5 5 6 6 6 5 4 5 5 4 4 4 4 4 4 4 3 3 2 2 1 1 1 1 1 2 2 2 2 2 2 1 1 1
11 11 11 12 11 11 10 10 7 6 7 7 7 7 6 6 6 6 6 6 6 5 5 5 5 5 5 5 5 5 4 4 3 3 2 1 1 1 2 1 2 2 2 2 2 2 1 1 1
13 13 13 13 12 11 10 10 7 7 7 7 7 7 7 7 6 6 6 6 7 7 7 7 6 6 6 6 6 5 5 4 4 3 2 2 2 2 2 2 2 1 2 2 2 2 1 1 1
14 13 13 14 13 12 12 11 10 9 8 8 8 8 7 8 8 7 7 7 7 8 8 7 7 7 7 7 6 6 6 5 4 3 3 2 2 2 2 2 2 2 2 2 2 1 1 1 1
15 14 14 14 14 13 12 12 11 11 10 9 9 9 8 8 8 8 8 8 8 8 9 8 8 8 8 8 7 7 7 6 5 5 4 3 3 3 2 2 2 2 2 2 2 2 1 1 1
16 15 16 16 16 15 14 13 12 11 11 11 10 10 9 9 9 9 9 9 9 10 10 10 9 9 9 8 8 7 7 7 7 6 5 4 4 4 4 3 3 3 2 2 2 2 2 2 2
18 17 17 17 17 17 16 15 14 13 13 12 12 11 11 10 9 10 10 10 10 10 11 11 10 10 10 10 9 9 9 8 7 7 6 6 5 5 5 4 4 3 3 3 2 2 2 3 3
20 19 19 19 18 18 18 16 15 14 14 14 14 13 11 11 10 10 11 11 11 11 11 12 12 11 11 11 11 11 10 10 9 8 8 7 6 6 6 5 5 4 4 4 4 4 4 4 4

GEFSSGP_500_meanwind_198.txt.gz
Wind_Speed
3 2 2 2 2 2 3 3 3 3 3 4 3 3 4 4 4 4 5 5 6 6 5 6 6 6 5 6 6 6 6 5 5 5 4 4 5 5 6 6 6 7 7 7 8 8 8 8 8
3 3 3 3 2 2 3 4 3 3 3 3 4 4 4 4 4 4 5 6 6 6 6 7 7 6 6 6 6 6 6 6 5 5 5 5 6 5 6 6 7 7 7 8 8 8 8 8 9
4 3 3 3 3 3 3 4 4 3 3 3 4 5 5 5 5 5 6 6 7 6 6 6 6 6 6 6 6 6 6 5 6 6 5 5 6 6 6 7 7 7 7 8 8 8 8 9 9
4 4 4 4 4 4 4 4 4 3 3 3 4 5 5 5 5 6 6 6 7 7 7 6 6 5 6 6 5 5 5 6 6 5 5 5 5 6 6 7 7 7 8 9 9 8 8 8 9
4 4 4 4 4 4 4 4 4 3 3 4 4 5 5 5 6 6 6 6 7 7 7 7 6 6 6 6 5 4 5 6 5 5 5 6 6 6 6 6 7 7 8 8 8 9 10 9 10
4 4 4 4 4 4 4 4 4 4 4 4 5 5 6 7 7 6 6 6 6 6 6 6 5 6 6 5 4 5 5 5 5 5 6 6 6 6 6 6 6 7 7 7 8 9 9 9 10
4 4 4 5 4 4 4 4 5 5 5 5 5 5 6 7 7 7 7 7 7 7 7 6 6 6 6 5 4 5 5 4 5 6 6 6 6 6 6 7 7 7 8 8 8 8 8 9 10
5 5 5 5 5 5 5 5 5 5 6 5 5 6 6 7 7 7 7 7 7 7 7 7 6 5 5 5 5 4 4 4 5 6 6 6 5 6 6 7 6 7 7 8 8 8 8 8 9
5 6 6 6 6 5 6 6 6 6 6 6 6 6 7 7 7 7 7 7 7 7 6 6 5 4 4 4 4 4 4 4 4 5 5 5 5 5 5 6 7 7 7 7 7 8 7 8 8
5 6 6 6 6 6 6 6 6 7 6 7 7 7 7 7 7 7 7 7 7 7 6 6 5 4 3 3 4 4 4 4 3 4 4 4 5 5 5 5 6 6 6 5 7 7 7 7 7
5 6 7 7 6 6 6 6 6 6 7 7 7 7 7 7 7 7 7 7 7 7 6 6 5 5 3 3 4 4 4 4 3 3 3 4 4 4 4 5 5 5 5 5 6 6 6 6 6
6 6 7 7 7 6 6 6 6 6 6 6 6 7 7 7 7 7 7 7 7 6 6 5 5 4 3 3 3 3 3 3 3 3 3 3 4 4 4 4 4 5 5 5 5 5 5 6 6
6 6 7 7 7 7 6 6 6 6 6 6 6 6 6 6 6 6 6 6 7 6 5 4 4 4 3 3 2 2 3 2 2 3 3 3 3 3 3 3 4 4 4 3 4 5 5 5 6
6 7 7 7 7 7 7 7 7 7 7 7 7 7 7 7 7 7 7 7 6 6 5 5 4 4 3 2 2 2 2 2 2 3 3 3 3 3 3 3 3 3 3 3 3 4 5 5 5
6 7 7 7 7 7 7 7 7 7 7 7 7 7 7 7 7 7 7 7 6 5 5 5 4 3 2 2 2 3 3 2 2 2 3 3 3 3 3 3 3 3 3 3 3 3 4 4 5
7 7 8 7 8 8 7 7 7 8 8 8 8 7 7 7 7 7 7 6 6 5 5 5 4 3 2 2 2 3 3 3 3 3 3 3 3 3 3 3 2 2 3 3 3 3 4 3 3
7 7 8 8 9 8 8 7 7 8 8 8 8 7 7 7 7 7 7 6 5 5 5 4 3 2 1 2 3 3 3 3 3 3 3 3 3 3 3 3 2 2 2 2 3 4 3 3 2
7 8 8 8 9 8 8 8 7 7 8 8 8 7 7 7 7 7 6 5 5 5 5 4 2 2 2 2 3 3 4 3 3 3 3 3 3 3 3 3 2 2 2 3 3 3 3 3 3
8 8 8 8 9 8 8 8 8 7 7 7 7 7 7 6 6 6 5 4 5 4 4 4 3 2 3 3 3 3 4 3 3 3 3 3 3 3 3 3 2 2 2 3 3 3 3 3 2
8 8 9 8 8 8 8 8 8 8 7 7 7 7 6 5 5 5 5 5 5 4 4 4 3 3 3 4 4 3 4 4 4 4 4 4 3 3 2 2 2 2 2 3 3 3 3 2 3
9 9 9 8 8 8 8 7 8 8 8 8 8 7 6 6 5 5 5 5 5 5 4 4 3 3 3 4 4 4 4 4 4 4 4 4 3 3 2 2 2 2 3 3 3 3 2 2 2
10 10 9 9 9 8 8 7 8 8 8 8 8 7 7 6 6 6 5 5 5 5 4 4 3 3 4 4 4 4 4 4 4 4 4 3 3 2 2 2 3 3 3 3 2 2 3 2 3
11 11 10 10 10 9 8 8 7 8 8 8 8 7 7 6 6 6 6 6 6 5 5 4 4 4 4 4 4 4 4 4 4 4 3 2 2 2 2 2 2 3 3 3 2 3 3 3 3
13 12 12 11 11 9 9 9 7 8 8 8 8 7 7 7 6 6 7 7 6 6 5 5 5 5 4 5 5 5 5 4 4 3 3 2 2 2 2 2 2 2 2 2 2 3 3 4 4
14 14 13 12 11 10 10 9 8 8 8 8 8 7 8 7 7 7 7 8 8 7 6 6 6 6 6 6 6 6 5 5 4 4 3 3 3 3 3 3 2 2 3 3 2 3 3 4 4
15 14 14 13 13 12 11 10 9 9 8 8 8 8 8 8 8 7 7 8 8 8 8 8 7 7 7 7 7 6 5 5 5 4 4 4 4 4 3 3 3 3 3 3 3 3 3 3 3
16 16 15 15 14 13 12 11 10 10 9 9 9 9 9 9 8 8 8 8 8 9 9 9 9 8 7 7 7 6 6 5 5 5 5 5 5 5 4 4 4 4 4 3 3 3 3 3 3
17 17 17 16 15 14 13 11 11 11 11 10 10 10 10 9 9 9 9 10 10 10 10 10 10 9 8 8 8 7 7 6 6 6 6 5 5 6 5 5 5 4 4 4 3 3 3 3 3
19 18 18 18 17 16 15 13 12 12 11 11 10 11 11 10 10 10 11 11 11 11 11 11 11 11 10 9 9 8 8 8 8 8 8 7 6 6 6 5 5 5 5 5 5 4 4 4 5
21 20 19 19 19 18 17 16 15 14 13 12 12 12 12 12 12 12 12 12 12 11 11 12 12 12 11 11 10 10 9 9 9 9 9 9 8 7 7 7 6 6 6 6 5 5 5 5 5

GEFSSGP_500_meanwind_204.txt.gz
Wind_Speed
5 4 4 4 3 2 3 2 2 2 2 2 2 2 2 2 2 2 2 3 3 3 3 3 3 2 3 3 3 3 4 3 4 4 4 3 4 4 5 6 5 6 7 7 7 7 8 8 8
5 5 4 3 3 2 2 2 2 1 2 2 2 2 2 2 2 2 2 3 4 4 4 3 3 3 3 4 4 4 4 3 4 4 4 4 4 5 5 6 6 6 7 7 7 8 9 9 9
5 5 4 3 3 2 2 2 2 2 2 2 2 3 3 3 3 3 3 3 4 5 5 4 4 4 4 4 4 4 4 4 4 4 5 5 5 4 5 6 6 7 7 7 8 8 9 9 9
5 5 4 3 3 2 2 2 2 2 2 2 3 3 3 4 4 3 3 4 4 4 5 5 4 4 4 4 4 5 5 5 5 5 5 4 5 5 5 5 5 6 7 8 8 9 9 9 10
5 5 4 3 2 2 3 3 2 2 2 3 3 3 4 4 4 4 4 3 4 4 4 4 5 5 4 5 5 5 6 5 5 6 5 5 5 5 5 5 6 6 7 7 8 8 9 9 10
4 4 4 3 3 3 3 3 3 3 3 3 3 4 5 5 5 5 5 4 4 4 5 5 5 5 5 5 5 5 5 6 6 6 6 6 6 6 6 6 7 7 7 7 8 9 9 9 10
4 4 3 3 3 3 3 3 3 3 3 3 3 4 5 5 6 6 5 5 5 5 5 5 5 5 5 5 5 5 6 6 6 6 6 7 6 7 7 7 7 8 8 8 9 9 9 10 10
3 3 3 3 3 3 3 4 3 3 4 4 4 5 5 5 6 6 6 5 5 5 6 6 5 5 5 5 5 6 6 6 6 6 7 7 6 6 6 6 7 8 9 9 9 9 10 10 10
2 3 3 3 3 4 4 4 4 4 4 4 5 5 5 5 6 6 6 5 5 5 5 5 5 5 5 6 6 6 6 6 6 6 7 6 6 6 6 7 6 7 8 9 9 9 10 9 9
2 3 3 3 4 4 4 4 5 4 4 5 5 5 5 5 5 6 6 6 6 5 5 5 5 4 5 5 5 5 5 5 5 6 6 5 5 6 6 6 6 6 7 8 8 8 9 9 9
2 2 3 3 4 5 5 4 4 4 4 5 5 5 5 5 5 6 6 6 6 5 5 5 4 5 5 5 4 4 4 4 4 4 4 4 4 5 5 6 6 6 6 7 8 8 9 9 8
2 3 3 4 4 5 5 5 4 4 4 5 5 5 5 5 5 6 6 6 5 5 5 5 5 5 5 4 4 3 3 3 3 3 4 4 4 5 5 5 6 6 6 6 7 7 7 7 7
3 3 4 4 5 5 6 5 5 5 5 5 5 5 5 5 5 6 6 6 6 5 6 6 5 5 4 4 4 4 3 3 3 3 3 4 5 5 5 5 5 5 6 6 6 6 6 6 6
4 4 4 5 5 6 6 5 5 5 5 6 6 5 5 6 5 6 6 6 5 5 6 6 5 5 5 4 4 3 3 3 3 4 4 4 4 4 4 4 4 4 5 5 5 5 5 5 6
4 4 5 5 5 6 6 6 6 6 6 6 6 6 6 7 6 6 6 6 6 6 6 6 5 5 5 4 3 3 3 3 3 4 4 4 4 4 4 4 4 4 4 4 4 4 4 5 5
4 5 5 5 5 6 6 6 6 6 6 6 6 6 6 7 7 6 6 5 6 6 6 6 5 5 4 4 3 4 3 3 3 3 4 3 4 4 4 4 4 4 4 4 4 3 3 4 4
4 5 5 5 6 6 6 6 6 6 6 6 6 6 6 7 6 6 5 5 5 5 6 5 5 5 4 4 4 4 4 4 4 4 4 4 4 4 4 3 3 3 3 3 3 3 4 3 3
4 5 5 6 6 6 6 6 6 6 6 6 6 6 6 6 5 5 5 6 6 5 5 5 5 5 5 5 5 4 4 5 4 4 5 4 4 4 4 3 3 3 2 2 3 3 3 3 3
5 5 5 6 6 6 6 6 6 6 6 6 6 6 6 6 5 5 5 5 5 5 6 5 5 5 5 5 5 5 5 5 5 5 4 4 4 4 4 3 3 3 2 3 2 3 3 3 3
6 6 6 6 6 6 6 6 6 6 6 6 6 6 6 6 6 5 4 5 5 6 6 5 5 5 5 5 5 5 5 6 6 6 5 5 5 4 3 3 3 2 2 2 2 3 3 3 3
7 7 6 6 6 6 6 6 6 6 6 6 7 7 7 7 6 5 5 5 6 6 6 5 5 6 5 5 5 5 5 6 6 5 5 5 5 4 3 3 3 3 3 2 2 3 3 3 3
8 8 8 7 7 6 6 6 6 6 6 6 7 7 7 7 6 6 6 6 6 6 6 6 6 5 5 5 5 5 6 6 6 6 5 5 5 4 3 3 3 4 3 3 3 4 3 3 4
10 9 9 8 7 7 6 6 5 6 6 6 6 7 7 7 6 6 6 7 7 6 6 6 6 5 6 6 6 6 5 5 5 5 5 5 4 4 3 3 3 4 4 4 4 4 4 4 4
11 10 10 9 8 7 7 6 6 6 7 6 6 6 7 6 6 7 7 7 7 7 6 7 7 6 6 6 6 6 6 5 5 5 5 5 4 4 3 3 4 4 3 4 4 4 4 4 4
11 11 10 10 9 9 8 7 6 7 7 7 7 7 7 7 7 8 7 7 7 8 8 7 7 7 7 7 6 6 6 6 5 5 5 5 5 5 4 4 4 4 4 4 3 3 4 4 4
12 12 11 11 11 10 9 8 7 7 7 7 8 8 8 8 8 8 8 8 8 8 8 8 8 7 7 7 7 7 6 6 6 6 5 5 5 5 5 5 5 5 4 4 4 4 4 4 4
14 13 13 13 12 11 10 9 9 8 8 8 8 8 8 9 9 9 10 10 9 9 9 9 9 8 8 7 7 7 7 7 6 6 6 6 5 5 5 5 6 5 5 5 5 5 5 5 5
16 15 15 14 14 13 12 11 10 9 9 8 8 8 9 9 9 9 10 10 10 10 10 10 10 10 9 9 8 8 8 7 7 7 7 6 6 6 6 6 6 6 6 5 5 6 6 6 6
17 17 17 16 15 14 13 13 11 11 10 10 10 10 10 10 10 10 11 11 11 11 11 11 11 11 10 10 10 10 9 8 8 8 8 8 7 7 7 7 6 6 6 6 6 6 6 6 6
20 19 18 18 17 16 16 15 13 13 12 12 12 11 11 12 12 12 13 12 11 12 12 12 12 12 12 11 11 11 10 10 9 8 8 9 8 8 8 7 7 7 7 7 7 7 7 6 6

GEFSSGP_500_meanwind_210.txt.gz
Wind_Speed
4 4 4 3 2 2 2 2 2 3 3 3 4 4 4 4 5 5 5 6 6 6 7 7 7 6 7 7 6 6 6 5 5 5 6 7 6 7 6 6 6 7 7 7 7 8 8 8 8
4 3 3 2 2 2 2 3 3 3 3 4 5 5 5 5 6 6 6 7 7 7 7 8 8 7 8 7 7 6 5 5 4 5 5 5 5 6 6 6 7 7 7 7 8 8 8 8 8
4 3 3 2 2 2 3 3 4 4 4 4 5 6 6 6 7 7 8 8 8 8 8 8 8 8 8 8 7 7 6 5 5 5 5 5 5 6 6 6 7 7 7 7 8 8 8 9 9
3 3 2 2 2 3 4 4 4 4 5 4 5 6 6 7 7 8 8 8 8 8 7 7 8 7 8 8 7 7 7 6 6 6 6 5 5 5 5 6 6 7 7 7 7 8 8 9 9
3 3 3 3 3 3 4 4 4 4 5 5 5 6 6 7 8 9 8 8 8 8 8 8 8 8 8 7 7 7 7 7 6 6 6 5 6 5 5 6 6 7 7 8 8 8 9 10 10
3 3 3 4 3 4 4 5 5 4 5 5 6 6 7 8 8 8 8 8 7 8 8 8 8 8 8 7 7 7 6 6 6 6 6 6 7 6 6 7 7 7 8 9 9 9 9 10 10
3 3 4 4 4 4 5 5 5 5 5 6 6 6 7 7 8 8 7 7 7 7 7 7 7 7 7 7 7 7 7 7 6 6 7 7 7 6 6 7 8 8 9 9 9 9 9 10 10
3 4 4 5 5 5 5 5 6 6 6 6 6 7 7 7 7 7 7 7 8 8 8 7 8 7 7 8 8 8 8 7 7 7 7 7 7 7 7 7 8 8 9 8 9 8 8 9 9
3 4 4 5 5 5 5 5 6 6 6 6 7 7 7 7 7 7 8 8 8 8 8 8 7 8 7 8 8 8 8 8 7 7 7 7 7 7 7 7 8 8 8 7 8 7 8 8 9
4 4 4 5 5 5 5 6 6 7 6 6 7 7 7 7 7 7 8 8 8 8 8 8 8 7 7 8 8 8 7 7 6 6 6 6 6 6 7 7 7 7 7 7 8 7 8 8 9
4 4 5 5 6 6 6 6 6 7 6 7 7 7 7 7 7 7 8 8 8 8 8 9 8 8 8 8 7 7 7 6 6 6 6 6 6 6 5 6 6 6 6 7 8 8 8 8 8
4 5 5 5 6 6 6 6 6 7 7 7 7 7 7 7 7 7 8 8 8 8 9 9 8 8 8 7 7 7 6 6 5 5 5 5 5 5 5 5 6 6 6 6 7 8 8 8 8
4 5 5 5 6 7 7 7 7 7 7 7 7 7 7 7 7 7 8 8 8 9 9 9 8 8 7 7 7 7 6 6 5 5 5 5 5 5 5 5 5 5 5 6 6 7 7 7 7
4 4 5 5 6 7 7 7 8 8 8 7 7 7 8 8 8 8 8 8 8 8 9 8 8 8 7 7 7 6 6 6 5 5 5 5 5 5 4 4 4 5 5 5 5 6 5 5 5
4 5 5 6 7 8 8 7 8 9 9 8 7 7 8 8 8 8 8 8 8 9 9 9 9 8 8 8 7 6 7 6 5 6 5 5 5 4 4 4 4 4 4 4 4 5 5 5 5
5 6 6 7 8 8 8 8 8 9 9 9 8 8 8 8 7 7 8 8 8 9 9 9 10 9 8 8 6 6 7 6 6 6 6 6 5 5 5 4 4 4 4 5 4 4 4 4 4
6 6 7 7 8 8 8 8 8 8 9 9 9 8 7 7 7 7 8 7 8 9 9 10 10 10 9 8 6 6 6 6 6 6 6 6 5 5 5 5 5 5 5 4 4 4 4 4 4
6 6 7 7 7 8 8 8 8 9 9 9 9 9 8 8 8 8 8 8 8 9 9 9 10 9 9 9 8 7 7 7 6 6 6 6 6 6 6 5 5 5 5 4 4 4 4 4 4
7 8 8 7 7 8 9 9 9 9 9 10 10 9 8 8 8 8 8 8 8 9 9 9 9 9 9 9 8 8 7 7 7 7 7 7 7 7 6 6 5 5 5 4 4 4 4 3 3
9 9 9 8 8 8 8 9 9 9 9 10 10 9 8 8 8 8 9 8 8 9 9 9 9 9 9 9 8 8 8 8 7 6 7 7 7 6 6 6 5 5 4 4 4 3 3 3 3
9 9 9 9 9 9 9 9 9 9 9 9 9 9 9 8 9 9 8 8 9 10 10 9 10 9 9 9 8 8 8 8 7 7 7 7 7 7 6 6 5 4 4 4 3 4 4 4 4
10 9 9 10 9 9 9 9 10 10 9 9 9 9 9 9 9 9 9 8 9 9 10 10 10 10 9 9 8 8 8 8 7 7 6 6 7 7 6 6 5 5 5 4 4 4 4 4 4
10 10 10 10 10 9 9 10 10 10 10 9 9 9 9 9 9 9 9 9 9 9 10 10 10 10 10 9 9 8 8 8 7 7 7 7 7 7 6 6 6 5 5 4 4 5 5 5 5
12 11 11 10 10 10 10 10 10 10 10 9 9 9 10 10 9 9 9 10 10 10 10 10 10 10 10 10 9 9 8 8 8 7 8 7 7 7 6 6 6 6 6 5 5 5 5 5 5
13 12 12 11 11 11 11 12 11 11 11 10 10 10 10 10 10 9 9 10 10 10 10 10 9 9 10 10 9 9 8 8 8 8 8 7 7 7 6 6 6 6 6 6 6 5 5 5 5
13 13 11 10 10 12 13 13 12 11 11 11 11 11 11 10 10 10 10 10 10 10 10 9 10 10 10 10 10 10 9 9 9 9 8 8 7 7 7 6 6 6 6 6 6 6 6 6 6
15 15 14 14 13 13 12 12 12 12 12 12 12 12 12 11 11 11 11 11 11 11 10 10 10 10 10 10 11 10 10 10 9 9 8 8 7 7 7 7 7 7 6 6 7 7 7 7 7
17 16 16 16 15 13 13 13 13 12 12 13 13 13 13 13 13 12 12 12 12 11 11 11 11 11 11 11 11 11 10 10 10 10 9 9 8 8 8 8 8 8 7 7 7 7 7 7 8
18 18 17 18 17 15 13 14 16 15 14 14 14 14 14 13 13 13 13 12 12 12 12 12 11 11 11 12 12 12 11 11 11 11 11 10 10 10 10 9 9 9 8 8 8 8 8 9 9
19 19 19 19 18 18 17 17 16 17 17 16 15 15 15 14 14 14 13 13 13 13 13 13 12 12 12 12 12 13 13 13 13 12 12 11 11 11 11 11 10 10 10 10 9 9 9 9 8

GEFSSGP_500_meanwind_216.txt.gz
Wind_Speed
4 4 4 3 2 2 1 2 2 2 2 2 3 4 5 6 6 6 6 5 6 6 6 6 6 6 6 7 6 6 6 6 7 7 7 7 7 8 9 9 9 7 8 9 9 9 9 9 9
4 4 3 2 2 1 1 2 2 2 2 3 3 4 5 6 6 6 6 6 6 6 6 6 6 7 6 6 6 6 6 6 6 7 7 7 7 8 9 9 9 8 8 8 8 9 10 10 10
4 3 2 1 1 1 1 1 2 2 3 3 4 5 5 6 6 6 7 7 7 7 6 6 6 6 6 6 5 5 5 6 7 7 7 8 8 8 9 8 8 8 7 8 8 9 10 11 11
4 3 1 1 1 2 2 3 3 2 3 4 4 5 6 6 6 6 6 6 6 6 6 6 6 6 6 6 6 6 6 5 6 6 7 7 8 8 8 8 8 8 8 8 9 9 10 10 11
4 3 1 1 2 3 4 3 3 3 3 4 5 5 6 6 6 5 5 5 5 5 5 6 6 6 6 6 6 6 6 6 6 6 6 7 8 8 8 8 8 8 9 9 8 8 8 9 10
4 3 2 2 2 4 4 4 5 4 4 4 5 5 5 6 6 5 5 5 5 5 5 6 6 7 6 6 6 6 6 6 6 7 7 7 7 8 8 8 8 8 9 9 9 8 9 9 10
4 3 3 4 4 4 5 5 5 5 5 5 5 5 5 5 6 6 5 6 6 6 6 7 6 6 6 5 6 6 6 6 6 6 6 6 7 8 8 8 8 8 8 8 9 9 9 9 10
4 4 4 5 5 5 5 6 6 5 5 5 5 5 5 6 6 6 6 6 6 6 6 6 6 6 6 5 5 5 5 5 5 6 6 6 7 7 8 8 8 8 8 7 8 8 8 9 9
4 4 5 6 5 5 5 5 6 6 5 5 5 5 6 6 6 6 6 6 6 6 6 6 6 6 6 5 5 5 4 4 4 5 5 5 6 7 7 7 7 7 8 8 7 7 7 8 9
3 4 5 5 5 5 5 6 6 6 5 5 5 5 6 6 6 6 7 6 6 6 7 7 6 6 5 5 5 4 4 4 3 3 3 4 4 5 6 6 6 6 7 7 7 7 7 7 7
4 4 4 5 5 6 5 6 6 6 5 5 5 5 5 5 5 6 6 6 6 6 6 7 6 5 5 4 4 4 4 3 3 3 3 3 4 4 5 6 6 7 6 6 7 8 7 7 7
3 4 4 5 5 6 6 6 5 5 6 5 5 5 6 6 6 6 6 6 6 6 6 6 6 5 5 4 3 4 4 3 3 3 3 3 4 4 4 5 5 5 6 6 6 6 6 6 7
3 4 4 5 5 6 6 6 6 6 6 6 6 6 6 7 6 6 6 7 6 6 6 6 6 5 4 4 4 4 3 3 2 3 3 3 3 3 4 3 4 4 4 5 6 6 6 6 7
3 3 3 4 5 6 6 6 7 7 7 6 7 7 6 6 6 6 6 7 6 7 7 6 6 5 5 5 5 4 4 3 3 3 3 3 3 4 4 3 3 4 4 5 5 5 5 5 5
3 3 4 4 5 6 6 6 7 7 7 7 7 6 6 6 5 6 6 6 6 6 7 7 6 6 6 5 5 4 4 4 3 3 3 3 3 3 3 3 3 3 3 4 4 4 4 4 4
4 4 4 4 5 6 6 6 7 7 7 7 7 6 6 6 5 6 6 6 6 7 7 7 7 7 6 6 5 5 5 4 4 4 4 4 4 4 3 3 3 4 4 4 4 4 4 4 4
5 4 4 4 4 5 5 5 5 6 7 7 7 6 6 5 5 5 6 6 6 7 7 7 8 7 6 6 6 6 5 4 4 4 4 4 4 4 4 4 4 4 4 4 4 4 4 4 4
5 4 4 5 5 5 5 5 5 6 7 7 7 6 6 5 5 5 5 5 6 6 6 7 7 7 7 7 6 6 5 5 4 4 4 4 4 4 4 5 5 4 4 4 4 4 4 4 4
6 6 6 5 5 5 6 6 6 6 7 7 7 7 6 6 5 5 5 5 6 6 6 7 7 7 6 6 6 6 5 5 5 5 4 4 4 4 5 5 5 5 4 4 4 5 4 4 4
7 7 7 6 5 5 6 7 6 6 7 6 6 7 7 6 6 6 5 5 6 6 7 7 8 7 7 6 6 5 5 5 5 4 4 4 4 4 4 5 5 5 4 4 4 4 5 4 4
8 7 7 7 7 6 6 6 6 6 7 7 6 6 6 6 6 6 6 6 6 6 6 7 7 7 7 6 6 5 5 5 5 5 4 4 4 4 4 4 4 4 4 4 4 4 5 5 5
9 8 8 8 7 7 7 5 5 6 6 6 6 6 6 6 6 6 6 6 7 7 6 6 7 7 7 6 6 6 5 5 5 5 5 5 4 4 4 4 4 4 5 5 5 5 5 6 6
10 10 9 9 8 8 7 6 5 5 5 6 6 6 6 6 6 6 6 7 7 8 7 7 7 7 7 6 6 6 5 5 5 5 5 5 5 4 4 4 4 5 5 5 5 5 6 6 6
11 11 10 10 9 9 8 7 6 6 6 6 6 6 6 6 6 6 6 7 8 8 7 7 7 7 7 7 6 6 5 5 5 6 6 6 6 5 4 4 5 6 6 5 5 5 6 6 6
12 12 12 12 11 10 10 9 7 6 6 6 6 6 6 6 7 7 7 7 7 8 8 8 7 8 8 7 6 6 6 6 6 6 6 7 7 6 6 6 6 6 6 6 6 6 6 6 7
13 13 13 13 12 11 11 10 8 7 7 7 6 6 6 7 7 7 7 7 7 8 8 8 8 8 8 8 7 7 7 7 7 7 7 8 7 7 6 6 7 7 7 6 6 7 7 7 7
14 14 13 13 14 13 12 11 9 8 8 7 7 7 7 7 7 7 8 8 8 8 8 9 8 8 8 8 8 8 8 8 8 9 9 8 8 7 7 7 7 7 7 7 7 7 8 8 7
15 15 15 14 15 15 14 13 10 9 9 9 9 9 9 8 8 8 9 9 9 9 9 9 9 8 8 9 9 9 8 8 9 9 9 9 9 9 9 8 8 9 9 9 9 9 9 9 8
16 16 16 17 17 16 15 14 12 11 10 10 10 10 10 9 9 9 9 10 10 10 10 10 10 10 9 9 9 9 9 10 9 9 9 10 10 10 10 10 10 11 11 11 10 10 10 9 9
18 18 17 18 17 17 16 15 13 13 12 12 12 12 11 10 10 10 10 10 10 10 11 11 11 11 10 10 10 10 10 10 10 10 10 10 11 12 12 12 12 12 12 11 11 11 11 10 10

GEFSSGP_500_meanwind_222.txt.gz
Wind_Speed
1 1 1 1 1 1 1 1 2 2 2 3 4 5 6 6 6 6 5 5 6 6 6 6 6 5 5 5 5 5 6 6 6 5 5 5 5 6 7 7 7 8 8 7 7 7 8 9 10
2 1 1 1 1 1 2 2 2 2 3 4 5 6 6 6 6 6 6 5 6 6 6 5 6 6 6 6 6 5 5 6 6 6 6 6 6 7 7 7 8 8 8 8 8 7 8 9 10
2 2 2 1 1 2 2 2 3 2 3 4 5 6 6 6 6 6 6 6 6 6 6 5 5 5 5 6 5 5 5 6 6 6 6 7 8 8 8 8 8 8 7 8 8 9 9 9 9
2 2 2 2 2 2 2 3 3 3 4 4 5 5 5 6 6 5 5 5 6 6 6 5 5 5 5 5 5 5 6 6 6 6 6 7 8 8 8 8 8 8 8 9 9 8 8 8 9
3 3 2 2 2 2 2 3 3 4 4 4 4 5 5 5 5 5 5 5 6 6 5 6 5 5 5 6 5 5 6 6 6 6 6 7 7 7 7 7 8 8 8 8 8 8 8 9 10
4 4 3 3 3 2 3 3 4 4 4 4 4 4 5 5 5 5 5 6 6 6 6 6 5 5 6 6 5 5 5 5 5 6 6 6 7 8 8 8 8 8 8 8 8 8 9 10 10
4 4 4 3 3 3 3 4 4 4 4 3 4 4 4 5 5 5 5 5 5 5 6 6 5 5 5 5 5 4 4 4 5 5 5 6 7 8 8 8 8 8 8 7 8 8 9 10 10
4 4 4 3 3 3 3 4 5 4 4 3 4 4 4 4 5 5 5 5 5 5 6 6 6 6 5 5 5 4 4 4 4 5 5 5 6 7 7 8 8 8 8 7 7 8 8 9 9
3 3 4 4 4 4 4 5 5 5 5 4 4 4 4 4 5 5 5 5 5 6 6 6 6 6 5 5 4 4 4 3 4 4 4 5 5 6 6 7 8 8 8 8 8 8 9 9 9
4 4 4 4 4 4 5 6 6 6 5 4 4 3 4 5 5 6 5 6 6 6 7 6 6 6 5 5 5 4 4 3 3 3 3 3 3 4 5 6 7 7 7 8 8 8 9 9 9
4 4 4 4 4 5 5 6 6 6 5 4 4 4 4 5 6 6 5 5 6 6 6 6 6 6 5 5 4 4 4 3 3 3 3 3 3 4 5 6 6 7 7 7 7 8 8 8 9
3 3 4 4 4 5 5 6 6 6 5 5 4 4 4 5 6 5 5 6 6 6 6 6 6 6 5 5 5 5 4 4 3 3 2 2 3 3 4 5 6 6 6 7 7 7 8 8 8
3 3 4 4 5 5 6 6 6 5 5 5 5 4 4 5 5 5 5 5 6 6 6 6 6 6 5 5 5 5 4 3 3 2 2 3 4 4 5 4 5 5 6 6 6 7 7 7 6
4 4 4 5 5 5 6 6 6 5 5 5 5 5 4 4 4 5 5 5 5 5 6 6 6 6 5 5 5 4 4 4 3 3 3 3 4 4 5 5 5 5 5 5 6 6 7 7 7
4 4 5 5 5 5 6 6 6 6 6 6 5 4 4 4 4 5 5 5 5 6 6 6 6 6 5 5 4 4 5 4 4 3 4 4 4 5 5 5 5 6 6 6 6 6 6 7 7
5 5 5 5 6 6 6 6 6 5 6 6 5 5 5 5 4 4 5 5 6 6 6 6 6 6 5 5 4 5 5 5 4 4 4 5 5 5 5 6 5 6 6 5 6 6 6 6 6
6 6 6 6 6 6 7 6 5 6 6 6 5 5 5 4 4 4 4 5 5 5 5 5 6 6 6 6 5 5 5 5 5 4 5 5 5 6 6 5 5 5 5 5 6 6 6 6 6
7 7 6 7 7 7 7 6 6 6 6 6 5 5 4 4 4 4 4 5 5 5 4 5 6 7 7 6 5 5 6 6 5 5 5 5 5 5 5 5 5 5 5 5 5 6 6 6 6
8 8 8 7 7 7 7 7 7 7 7 6 6 5 5 4 4 4 4 4 5 5 5 5 6 7 7 6 6 5 6 6 5 5 4 4 4 4 4 4 4 5 5 5 5 6 6 6 5
9 9 9 8 8 8 7 7 8 8 7 7 6 5 5 5 5 5 5 5 5 5 5 6 6 6 7 7 6 5 5 5 5 4 4 4 5 5 5 4 4 4 5 5 5 6 6 6 5
10 10 10 9 8 8 8 7 8 7 7 7 7 6 6 6 6 5 5 5 6 6 6 7 7 7 7 7 6 5 4 5 4 4 4 5 5 5 5 4 4 5 5 5 6 6 6 6 6
12 11 11 10 9 9 9 8 8 7 7 7 8 8 7 7 6 6 5 5 6 6 7 7 7 7 7 7 7 6 5 5 5 4 5 5 5 5 5 5 5 5 6 6 6 7 7 7 7
12 12 12 11 11 10 10 10 8 8 8 8 8 8 7 7 7 6 6 6 7 7 7 7 7 8 8 8 7 6 6 5 5 5 5 6 5 5 5 5 6 6 6 6 7 7 8 8 8
13 13 13 12 12 11 10 11 9 9 9 9 9 9 8 8 7 7 7 7 8 7 7 7 7 7 7 7 7 7 6 5 5 6 6 6 6 6 5 5 6 6 6 6 7 8 8 9 9
15 14 14 14 13 12 11 11 10 9 9 9 10 10 10 9 8 8 9 8 8 8 7 7 7 7 7 7 8 7 6 6 6 6 7 7 6 6 6 6 6 6 7 7 8 8 9 9 9
16 16 15 15 14 13 12 11 10 10 10 10 10 10 10 10 9 9 9 8 8 8 8 7 7 8 8 8 8 7 7 7 7 7 8 8 7 7 7 7 7 8 8 8 9 9 10 10 10
17 17 16 16 16 15 14 12 11 11 11 11 11 11 10 10 9 9 8 8 8 8 8 8 8 8 8 8 8 8 8 8 8 8 8 8 8 8 8 8 8 9 9 10 10 10 11 11 11
18 18 17 17 17 16 15 13 12 12 12 12 12 11 11 10 10 9 8 9 9 9 9 8 9 9 9 9 8 8 8 9 9 9 9 9 9 9 9 10 10 11 11 11 11 11 10 10 10
19 19 18 18 18 18 16 14 13 13 13 13 13 13 12 11 11 10 10 9 10 10 10 10 10 10 10 10 10 10 10 10 11 11 10 10 10 10 11 11 11 11 12 12 11 11 11 11 11
21 21 20 19 19 19 19 16 15 15 15 14 14 14 13 12 11 11 11 11 11 10 11 11 11 11 11 11 11 12 11 11 11 11 11 11 11 11 12 12 12 11 11 11 12 11 11 11 11

GEFSSGP_500_meanwind_228.txt.gz
Wind_Speed
3 3 3 2 1 0 0 1 1 1 2 2 2 2 2 2 2 2 2 3 3 4 3 3 4 4 4 4 5 5 5 5 6 6 6 7 7 7 7 7 8 7 8 9 10 11 11 10 10
3 3 2 2 1 0 1 1 2 2 2 2 2 2 2 3 3 3 3 3 3 3 3 3 4 5 5 5 6 6 6 6 6 6 7 7 7 8 8 9 9 9 8 8 8 10 10 10 10
4 3 3 2 1 1 1 1 2 2 2 2 2 2 2 3 3 3 3 3 3 3 3 3 4 5 5 5 6 7 7 7 7 7 7 8 8 8 9 9 9 8 7 7 6 8 9 9 10
4 4 3 2 2 1 1 1 2 2 3 3 3 2 3 3 3 3 3 3 3 3 4 4 4 5 5 5 5 6 7 7 7 7 7 8 8 8 9 9 8 7 7 7 7 7 8 9 9
4 3 3 2 2 1 1 2 2 2 3 3 3 3 3 3 3 3 3 3 4 4 4 4 5 5 5 5 5 5 6 6 7 7 7 8 8 9 9 8 7 7 7 7 8 8 9 10 10
4 3 3 2 2 2 2 2 2 2 3 3 3 3 3 3 3 3 3 3 4 3 4 4 4 5 4 4 4 4 5 6 6 6 7 7 7 8 8 7 7 8 8 8 9 9 9 10 10
4 4 3 3 3 2 2 2 2 3 3 3 3 3 3 3 3 3 3 4 4 4 4 3 4 4 4 4 4 4 4 5 5 5 5 5 6 7 7 7 7 8 8 8 8 8 8 9 10
4 5 4 3 3 3 3 3 3 3 3 3 2 3 3 3 3 3 3 4 4 4 4 4 5 5 5 5 4 4 4 4 4 4 5 5 5 6 7 7 6 7 8 8 8 8 8 9 10
4 4 4 3 3 4 4 4 4 3 3 3 2 2 2 3 3 3 3 4 4 4 4 4 5 5 5 4 4 4 4 3 4 4 5 5 6 6 6 7 7 7 7 7 8 9 9 9 10
3 3 3 3 3 3 4 4 4 4 3 2 2 2 3 3 4 4 4 4 4 5 4 4 5 5 5 4 4 4 4 4 4 4 5 5 5 6 6 7 7 7 7 8 8 8 9 9 9
3 3 3 3 3 4 4 4 5 4 4 3 3 3 3 4 4 4 5 4 4 5 5 5 5 5 5 4 4 4 4 4 4 5 4 5 5 6 6 7 7 8 7 8 8 8 8 9 9
2 3 3 3 3 4 4 5 4 4 4 4 4 4 4 4 5 5 5 5 5 5 5 5 5 4 5 5 5 4 4 4 4 4 5 5 5 6 6 7 7 7 8 8 8 8 8 8 8
2 3 3 3 3 4 4 5 5 4 4 4 4 4 4 5 5 5 5 5 5 5 5 5 5 5 5 4 4 4 4 4 4 4 5 5 5 6 5 6 6 7 8 8 8 8 8 8 7
2 2 2 3 3 4 4 5 5 4 5 5 5 5 4 5 6 5 5 5 5 5 5 5 5 5 4 4 4 4 4 4 4 5 5 5 5 5 6 6 5 6 7 8 7 8 8 7 7
3 3 3 4 4 4 4 5 5 5 4 5 5 5 6 6 6 6 6 5 5 5 5 5 5 5 4 4 4 4 4 4 5 5 5 6 6 6 6 5 5 5 6 7 7 7 7 7 7
4 4 4 4 4 4 4 5 5 5 5 5 5 6 6 6 6 6 6 5 5 5 5 5 5 4 4 5 4 5 4 4 5 5 5 5 5 6 6 5 5 6 6 6 6 6 6 6 6
5 5 5 5 5 4 5 5 6 5 5 5 5 6 7 7 6 6 6 5 5 5 5 5 5 5 5 5 5 5 5 5 5 5 6 6 5 5 6 5 5 6 6 6 6 6 5 5 6
5 6 6 6 6 5 5 5 6 6 5 5 5 6 7 7 7 6 6 6 5 5 5 5 5 5 5 5 5 5 5 5 5 5 6 6 5 6 6 6 6 6 6 6 6 6 6 6 6
7 6 6 7 7 6 6 6 6 6 6 5 5 6 7 7 7 7 7 6 6 6 6 6 5 5 5 5 6 5 5 5 5 5 5 5 5 5 6 6 6 6 6 6 6 6 6 7 7
7 7 8 8 8 8 7 7 7 7 7 6 6 6 7 8 7 7 7 7 6 6 7 6 6 6 6 6 7 6 5 5 5 5 4 5 5 5 5 5 5 5 5 6 6 6 7 7 7
8 8 9 9 9 8 7 7 7 8 7 7 7 8 8 8 8 8 7 7 7 8 8 7 6 6 6 7 7 7 6 6 6 5 5 5 5 5 4 5 5 6 6 6 7 7 7 7 7
9 9 10 9 9 9 8 8 8 8 8 8 9 9 9 8 8 8 8 8 8 8 8 8 7 7 8 8 7 7 6 6 5 5 5 5 5 5 5 5 5 6 6 7 7 7 7 8 9
10 10 10 10 10 9 9 9 9 9 9 9 9 10 9 9 9 9 9 9 9 8 8 8 7 8 8 8 8 7 7 7 6 6 5 5 5 5 5 5 5 5 6 6 6 7 8 8 9
11 11 11 10 11 11 10 10 10 10 10 10 10 10 10 9 9 9 9 9 9 9 9 8 8 8 8 8 7 7 7 7 7 7 6 6 6 5 5 5 6 6 6 6 7 8 9 9 9
13 12 12 11 11 12 11 11 11 11 10 11 11 11 10 10 10 9 9 9 9 10 10 9 8 8 8 8 8 8 8 8 8 8 8 7 7 7 7 7 7 7 7 7 8 9 9 9 10
15 14 14 14 13 13 12 12 12 11 11 11 12 11 11 10 11 10 10 10 10 10 10 9 9 9 8 9 9 9 9 9 9 9 9 8 8 8 9 8 8 8 8 8 9 9 9 9 9
16 15 16 16 15 14 14 13 13 13 12 12 12 12 12 11 11 11 11 10 10 10 10 10 9 9 9 10 9 9 9 9 9 10 9 9 9 9 9 10 10 9 9 9 10 10 9 9 8
17 16 17 17 16 16 15 14 14 13 14 13 13 13 13 13 12 12 11 11 11 11 11 11 10 10 10 10 10 10 10 10 9 9 9 9 9 9 10 10 10 10 10 10 10 10 10 9 9
17 17 17 18 18 18 17 16 15 15 14 14 13 13 14 14 14 13 12 12 12 11 11 11 11 11 11 10 10 10 10 10 10 10 10 10 9 10 10 11 11 12 12 11 11 10 10 10 11
19 19 19 19 19 20 20 18 17 17 16 15 15 15 15 15 14 14 13 13 13 12 12 12 12 12 12 11 12 11 11 11 11 11 11 11 10 11 11 12 12 12 13 12 12 11 11 11 12

GEFSSGP_500_meanwind_234.txt.gz
Wind_Speed
2 2 2 1 1 0 1 2 3 3 3 4 5 5 5 5 5 5 5 6 6 7 7 8 7 7 7 7 7 7 7 7 7 8 8 9 9 9 9 9 9 9 10 11 11 11 11 11 11
2 2 1 1 1 1 1 2 2 3 4 4 5 5 5 5 6 6 6 6 6 7 7 7 7 7 8 8 8 8 8 8 8 8 9 9 9 9 10 10 10 11 11 11 11 11 11 11 11
2 2 2 1 2 2 2 3 3 3 4 4 5 5 5 5 6 6 6 6 7 7 7 7 8 8 8 8 8 8 8 8 9 9 9 9 10 10 10 11 11 11 12 12 12 11 11 11 12
2 2 2 2 2 2 3 3 3 3 4 5 5 5 6 6 6 6 6 6 6 7 7 7 7 7 7 8 7 7 7 8 8 9 9 9 10 10 11 11 11 10 11 11 11 11 11 11 11
2 3 3 3 2 3 4 4 4 4 4 4 5 5 5 5 5 6 6 6 7 7 7 6 6 7 7 8 7 7 7 8 8 9 9 9 9 9 10 10 10 10 9 8 9 10 10 10 10
2 3 2 2 3 3 4 4 5 5 4 5 5 5 5 5 6 6 6 6 6 7 7 7 7 7 7 7 7 7 7 7 8 8 8 9 9 9 9 8 9 9 8 8 8 9 10 10 10
3 3 2 2 3 4 4 4 5 5 4 5 5 5 5 5 6 6 6 7 7 7 8 8 8 7 7 7 7 7 7 7 7 8 8 8 7 8 8 8 7 8 8 8 7 7 8 9 9
2 3 3 3 3 4 4 4 5 5 5 5 5 5 5 5 6 7 7 7 8 8 8 8 7 7 7 7 6 7 7 7 7 7 7 7 8 7 8 7 8 8 8 7 8 8 9 9 9
2 3 3 4 4 4 4 5 5 5 5 5 5 5 5 6 7 7 7 7 8 8 8 8 8 8 8 7 7 7 7 7 7 7 7 7 8 8 8 8 7 7 7 7 8 9 9 9 9
2 4 3 4 4 5 5 5 6 6 6 5 5 6 6 7 7 8 7 7 8 8 8 8 8 8 8 8 8 7 7 7 7 7 7 7 8 8 8 7 7 7 7 7 8 9 9 10 10
2 3 3 4 5 5 5 5 6 6 7 7 7 7 7 7 7 8 7 7 8 8 8 8 8 8 8 8 8 7 7 7 7 7 7 7 7 8 8 7 7 7 7 8 8 8 8 9 10
3 3 4 4 5 5 6 6 6 6 7 8 8 7 7 7 7 7 7 7 8 8 8 8 9 8 8 8 8 8 8 7 7 7 7 7 7 7 7 7 7 7 8 8 8 8 8 8 9
3 4 4 5 5 5 6 6 6 6 7 7 8 8 7 8 8 8 8 7 8 8 8 8 8 8 8 8 8 8 8 7 7 7 7 7 7 8 7 8 8 8 8 8 9 8 9 8 8
4 4 5 5 5 5 6 6 7 7 7 8 8 8 8 8 8 8 8 8 8 8 8 8 8 8 8 8 8 8 8 8 8 7 7 7 8 7 8 8 8 8 8 8 8 8 9 8 8
4 5 5 5 6 6 6 6 7 7 7 8 8 9 9 9 8 8 8 9 9 8 8 8 8 8 8 8 8 8 8 8 8 8 8 8 8 8 8 8 8 8 8 8 8 8 9 9 8
6 6 6 6 7 7 7 7 8 8 8 8 9 9 9 9 9 8 8 8 9 8 8 8 8 8 8 8 9 9 9 8 8 8 8 8 9 9 8 8 8 8 8 8 8 8 9 8 7
6 6 7 7 7 7 8 8 8 8 9 9 9 8 9 9 8 8 9 8 9 8 8 8 8 8 8 9 9 9 9 8 8 8 9 9 9 9 9 8 8 8 8 8 7 8 7 7 7
6 7 7 8 8 9 8 8 9 10 9 9 9 9 9 9 9 9 9 9 9 9 8 8 8 8 8 9 9 9 9 8 8 9 9 9 9 9 9 8 8 8 8 8 7 7 7 7 7
7 7 8 9 9 9 9 10 10 10 10 10 10 10 10 10 10 9 9 9 9 9 9 8 8 8 8 8 9 9 9 9 9 9 10 10 9 8 8 8 8 8 8 7 7 7 7 8 8
8 8 9 9 9 9 10 10 10 10 11 11 11 10 11 11 10 9 9 10 10 10 9 8 8 8 8 9 9 9 9 9 9 9 9 9 9 9 8 8 8 8 7 7 7 7 8 8 9
9 9 9 9 9 10 10 10 10 10 11 11 11 11 11 11 10 10 10 10 10 10 10 9 9 9 9 9 10 10 10 10 10 10 9 9 9 8 8 8 8 8 7 7 7 8 8 8 9
10 9 9 9 10 9 11 11 11 12 12 11 11 12 11 11 11 11 11 11 10 10 10 9 9 9 10 10 10 10 10 11 11 10 10 9 9 8 8 7 7 8 8 8 8 7 7 8 8
11 10 10 10 10 11 11 12 11 14 13 12 12 13 12 12 12 12 12 11 11 10 10 10 10 10 10 11 11 11 11 11 11 11 10 10 9 9 8 8 7 7 7 7 8 8 8 9 9
12 12 11 11 12 12 12 13 13 14 14 14 14 14 14 13 13 13 13 12 12 11 11 11 11 11 11 12 12 12 12 12 12 11 10 10 9 8 8 8 8 8 8 8 8 9 9 10 10
13 13 12 12 12 11 13 14 15 15 15 15 16 15 14 14 14 14 13 13 13 13 12 12 11 12 12 12 12 12 12 12 12 12 11 11 10 9 9 8 8 8 9 9 10 10 10 10 10
14 14 12 11 11 12 15 16 16 16 16 16 16 16 16 15 15 14 14 14 13 13 13 12 12 12 12 12 13 13 12 12 12 12 11 11 11 10 10 9 9 10 10 10 10 11 11 11 11
15 15 14 14 14 14 16 17 17 17 17 17 17 16 16 15 15 15 15 14 14 14 14 13 13 13 13 13 13 13 12 12 12 12 11 11 11 11 11 11 11 11 11 11 12 11 11 11 11
16 16 16 16 15 14 15 17 18 17 17 17 17 16 17 17 16 16 16 15 14 14 14 14 14 14 13 13 13 12 12 12 12 12 12 12 12 12 12 12 12 12 12 12 12 12 12 12 12
17 17 18 18 17 15 16 18 18 18 19 18 18 18 18 17 17 17 17 16 15 15 14 14 14 14 14 14 13 13 13 13 13 13 13 13 13 13 13 13 13 13 13 13 13 13 13 13 13
18 18 19 19 18 18 19 20 20 20 19 19 20 19 18 18 18 18 18 17 16 16 15 15 15 14 14 14 14 14 14 14 14 14 14 14 14 14 14 14 14 14 14 14 14 14 15 15 15

GEFSSGP_500_meanwind_240.txt.gz
Wind_Speed
2 2 2 1 1 1 0 1 1 2 3 3 3 4 4 4 4 4 4 4 5 5 6 5 5 6 7 6 6 6 7 7 8 9 9 10 10 11 11 10 10 11 12 12 12 12 13 12 12
2 2 1 1 1 0 0 1 1 1 2 3 3 3 4 4 4 4 4 5 5 5 6 6 6 6 7 7 7 6 6 7 8 8 9 9 10 11 11 10 10 11 11 12 12 12 12 12 12
2 2 2 1 1 2 1 1 1 2 2 3 3 3 4 4 4 4 4 5 5 6 6 7 7 6 6 6 6 6 6 6 7 7 8 9 10 10 10 10 11 12 12 12 13 13 12 12 11
2 2 2 1 2 2 2 1 1 2 2 3 3 4 4 4 4 4 4 4 5 6 6 6 6 5 5 5 5 5 6 6 6 7 7 8 9 9 10 10 11 11 12 13 13 13 13 13 12
2 1 1 1 1 2 3 3 2 2 2 3 3 3 4 4 4 4 5 5 5 6 6 6 6 5 5 5 5 5 6 6 6 6 7 7 8 9 10 11 11 12 12 12 13 14 13 13 12
1 1 0 1 2 2 3 3 3 2 2 3 3 3 3 4 4 4 5 5 6 6 6 7 6 6 5 5 5 6 6 6 6 6 7 7 7 8 9 10 10 10 11 11 12 13 12 12 12
1 1 2 1 3 3 3 3 3 3 3 3 3 3 4 4 4 5 5 6 6 6 7 6 6 6 6 5 6 6 5 5 6 6 6 7 7 7 8 8 8 9 8 8 9 11 10 11 12
1 2 2 3 4 4 4 4 4 4 4 4 4 4 4 5 5 5 5 6 6 7 7 6 6 6 6 6 6 6 5 5 5 6 6 6 6 7 8 8 9 8 7 6 7 8 9 10 10
1 2 2 3 4 4 5 4 4 4 4 4 4 5 5 5 6 6 6 6 6 6 6 6 6 6 6 6 6 6 6 5 5 6 6 6 7 7 7 7 7 7 7 7 7 7 7 8 9
1 2 2 3 4 5 5 4 4 4 4 5 5 5 5 5 5 6 6 6 6 6 6 6 6 6 6 6 5 5 5 6 6 6 6 6 6 6 6 6 7 7 7 7 7 7 8 8 9
2 2 3 3 4 4 4 4 4 5 5 6 6 6 5 5 5 5 5 6 6 6 6 6 6 6 6 5 5 5 5 6 6 6 6 5 5 5 5 6 6 6 6 6 6 7 7 8 9
2 2 2 3 4 4 5 5 5 5 5 6 6 6 6 5 5 5 5 6 6 6 6 5 5 5 5 5 5 5 5 6 6 6 6 5 5 5 5 6 6 5 5 5 5 6 7 8 8
2 2 3 3 4 4 5 5 5 5 6 6 6 6 6 6 5 5 5 6 6 6 6 6 5 5 5 5 5 5 5 5 5 5 5 5 6 6 5 5 5 5 5 5 5 6 6 7 7
2 2 3 3 3 4 4 4 4 5 6 6 6 6 6 6 6 6 5 6 6 7 7 7 6 5 6 6 6 6 6 5 5 5 5 5 5 5 5 4 5 5 6 6 6 6 7 7 7
3 3 3 3 3 4 5 5 5 5 6 6 6 6 6 6 6 6 6 7 7 7 7 7 6 6 6 6 6 6 6 6 6 5 5 5 5 4 5 4 5 6 6 6 6 6 6 7 7
4 4 4 3 3 3 4 5 5 5 6 6 6 7 6 6 7 7 7 6 7 7 7 7 7 7 6 6 6 7 7 6 6 5 5 5 5 5 5 5 6 6 6 6 6 6 6 6 7
5 5 4 3 3 3 4 5 5 6 6 7 7 7 7 6 7 7 7 7 7 7 7 7 7 7 7 6 6 7 7 6 6 5 5 6 6 6 5 5 6 6 6 6 6 6 6 6 6
6 5 5 4 3 4 4 5 6 6 7 7 8 8 7 7 7 7 7 7 7 7 6 6 7 7 7 7 6 6 6 7 6 6 6 7 7 6 6 6 6 6 6 6 6 6 6 6 6
7 6 6 5 5 5 5 6 6 7 7 7 8 8 7 7 7 7 7 7 7 7 7 7 7 7 7 7 7 7 7 7 7 7 7 7 7 6 6 6 6 6 6 6 6 6 6 6 6
6 6 7 5 5 5 6 6 7 7 7 8 8 8 7 7 7 7 7 7 7 7 7 7 7 7 7 7 8 7 8 8 8 8 8 8 7 7 7 7 7 6 7 7 7 7 7 7 7
7 6 7 7 6 6 7 6 6 7 7 8 8 8 7 7 7 8 8 7 7 7 6 6 7 7 7 8 8 8 8 8 8 8 8 8 8 8 8 7 7 7 7 7 7 7 7 7 8
8 8 8 8 8 7 8 7 7 8 8 8 8 7 7 7 7 8 8 7 7 7 7 7 7 7 7 8 8 9 9 9 8 9 9 9 9 8 8 7 7 7 7 7 7 7 8 8 8
10 10 10 10 10 9 9 9 7 8 8 8 8 8 8 8 8 8 8 8 8 8 8 8 8 9 8 8 9 9 10 10 9 9 9 8 9 8 7 7 7 7 8 8 9 9 9 9 9
11 11 11 11 11 10 10 9 8 8 8 8 8 8 9 9 8 8 8 8 9 9 9 9 9 9 9 10 10 10 10 10 9 9 9 8 8 8 8 8 8 8 8 8 9 9 9 10 10
12 12 12 12 12 11 10 10 8 9 9 9 9 9 9 10 9 10 10 9 9 10 10 10 10 10 10 10 10 10 10 10 10 9 9 9 9 9 9 8 8 8 9 9 9 10 10 10 11
13 14 14 14 13 12 12 12 10 11 11 11 11 10 10 10 11 11 11 10 11 11 11 11 11 11 11 11 11 11 11 10 10 10 10 9 9 9 9 9 8 8 9 9 9 10 10 11 12
15 15 15 15 14 14 13 12 12 11 11 11 12 12 12 12 11 11 11 11 11 12 12 12 11 12 12 11 11 11 11 11 10 10 10 10 10 9 9 10 10 10 10 10 10 10 10 11 11
16 15 15 16 16 16 14 13 13 12 11 12 12 13 12 13 13 13 13 13 13 13 13 13 13 12 12 12 12 12 12 11 11 11 11 10 10 10 10 11 11 11 11 11 11 11 11 12 12
17 16 16 16 16 17 17 15 15 14 14 14 14 14 15 15 15 15 15 14 14 14 14 14 14 13 12 12 12 13 12 12 12 12 12 11 11 11 11 11 11 11 12 12 12 13 13 13 13
18 18 17 17 17 18 18 16 16 16 16 16 16 16 16 16 16 17 17 16 15 15 15 15 15 14 14 13 13 13 13 13 13 13 13 12 12 12 12 12 12 12 13 13 13 13 14 14 14

GEFSSGP_500_meanwind_246.txt.gz
Wind_Speed
2 2 2 2 2 2 1 1 2 2 2 2 3 3 3 4 3 3 4 4 4 4 5 5 7 7 6 6 6 5 5 5 5 6 6 7 8 8 8 8 8 8 9 9 10 10 10 10 11
2 2 2 2 2 2 2 2 1 2 2 3 3 4 4 4 4 4 4 5 5 5 5 6 6 5 6 6 6 5 4 5 5 5 6 6 6 7 7 8 8 9 9 10 11 11 11 11 11
2 2 2 2 2 2 2 2 2 2 3 3 4 4 5 5 5 5 5 5 6 6 6 7 6 5 5 5 5 5 4 5 5 5 6 6 6 6 7 8 8 9 10 10 11 11 11 11 11
2 2 1 2 2 2 2 3 3 4 3 4 4 4 5 5 6 5 5 5 6 7 7 7 7 6 5 5 5 4 4 4 5 5 6 6 6 6 7 8 9 9 10 11 11 12 12 11 11
2 2 2 2 2 2 3 4 4 4 4 4 4 5 5 5 5 5 5 6 6 6 6 6 6 6 5 5 4 5 5 5 5 6 6 6 7 7 8 8 9 10 11 12 12 12 12 12 12
2 2 2 2 2 3 3 4 4 3 3 3 4 5 5 5 5 6 6 6 6 6 5 5 5 5 4 5 5 5 5 5 5 5 6 6 7 8 8 9 9 10 11 11 12 13 13 13 13
3 2 3 3 3 3 4 4 4 3 3 3 4 4 5 5 5 6 6 7 7 6 5 5 5 5 5 5 5 5 4 5 5 6 6 7 7 8 9 9 9 9 10 11 12 12 12 12 13
3 3 3 4 4 4 4 4 3 3 4 4 4 5 5 5 5 6 6 7 6 6 6 5 5 5 5 5 4 5 5 5 5 6 6 6 7 8 8 8 8 9 10 11 12 12 12 11 12
4 4 4 4 4 4 4 4 4 4 3 4 4 4 5 5 5 5 6 7 6 6 6 6 6 5 5 5 5 5 5 5 6 6 6 6 7 7 7 8 8 8 9 9 9 10 10 10 11
4 4 4 4 5 5 4 4 4 4 4 4 5 4 4 4 5 5 6 6 6 6 6 6 5 5 6 6 5 5 5 6 6 6 6 6 6 6 7 7 8 8 8 7 7 7 8 10 10
5 5 5 5 5 5 4 4 4 3 4 5 5 5 4 4 5 5 6 6 7 7 6 6 6 6 6 6 5 5 5 6 6 6 6 6 6 6 7 7 7 7 7 6 6 7 7 8 9
5 5 5 5 5 5 4 3 3 3 4 4 5 5 5 4 5 5 6 6 6 6 6 6 6 6 6 6 6 6 6 6 5 6 6 6 6 6 6 6 6 6 7 7 6 6 6 6 7
5 6 5 5 5 5 4 3 3 3 4 4 5 5 5 5 5 5 6 6 6 7 7 6 6 6 6 6 6 6 6 6 5 5 5 5 6 6 7 7 7 7 7 6 6 6 6 7 7
6 6 6 6 6 5 4 3 4 4 4 5 5 5 5 6 6 5 6 6 7 7 7 6 6 6 6 6 6 6 5 6 6 6 6 6 7 7 6 6 6 7 6 6 6 6 7 8 8
7 6 6 6 6 5 4 4 4 5 5 5 6 6 6 6 6 6 6 6 7 7 7 6 6 6 6 6 6 5 5 5 6 6 6 6 6 7 7 6 6 6 6 6 6 7 7 8 8
7 7 7 6 6 5 5 4 4 5 5 6 6 6 6 6 6 6 6 6 6 6 6 6 7 6 6 6 6 6 6 5 5 5 5 6 6 6 6 6 6 6 6 7 7 7 7 7 7
7 8 7 6 6 6 6 6 5 5 5 5 5 6 6 7 6 6 6 6 6 6 6 6 6 6 6 6 6 6 6 5 5 5 6 6 6 6 6 7 7 8 7 8 8 8 8 7 6
8 8 8 7 6 7 6 6 6 6 6 6 6 6 6 7 7 6 6 6 6 6 6 6 6 5 5 6 6 6 6 6 6 6 6 7 7 8 8 8 8 8 8 8 8 8 8 8 8
8 8 8 8 8 8 8 7 7 7 7 7 7 7 7 7 6 6 6 6 6 6 6 6 6 6 6 6 6 7 6 6 6 7 7 7 8 9 9 8 9 8 8 8 8 8 8 8 8
9 8 8 9 9 8 8 8 8 8 8 8 8 8 7 7 6 6 6 6 6 7 7 6 6 6 6 6 6 7 7 6 7 7 8 8 9 9 9 9 9 9 9 9 9 8 8 8 8
10 10 10 10 10 10 9 9 9 9 8 8 8 8 8 7 7 6 6 6 6 7 7 7 7 7 7 7 7 7 7 7 7 8 8 9 9 9 9 9 9 9 9 9 9 8 9 9 9
11 11 11 11 11 11 10 10 9 9 9 8 8 8 8 8 8 7 7 7 7 8 8 7 8 8 8 8 8 8 8 7 8 8 9 9 10 9 9 9 9 9 9 9 9 9 9 9 9
12 12 13 13 12 12 12 11 9 9 9 9 9 9 9 8 8 8 8 8 8 9 9 9 9 9 9 9 9 9 9 9 9 9 10 10 10 9 9 9 8 8 9 9 9 9 9 9 9
13 14 14 14 13 13 12 12 10 9 9 9 10 10 9 9 9 10 10 10 10 10 10 10 10 10 10 10 10 10 10 10 10 10 10 10 10 9 9 9 9 9 9 9 9 9 9 9 9
14 14 15 15 14 13 13 13 11 11 10 10 11 11 10 11 11 11 11 11 12 11 11 11 11 11 11 11 11 11 11 11 11 11 11 11 10 10 9 9 9 9 9 9 9 9 9 9 10
15 15 16 16 15 13 13 13 12 11 11 11 12 12 12 12 12 12 12 12 12 12 12 12 13 12 12 12 12 11 12 12 12 12 12 11 11 10 10 10 10 9 9 9 9 9 9 10 10
17 16 16 17 16 15 14 13 12 12 12 12 12 13 13 13 13 13 13 13 13 13 13 13 13 13 13 14 13 12 12 12 13 13 12 12 12 12 11 11 11 10 10 10 10 10 10 11 11
17 17 17 17 17 17 15 14 13 13 13 14 14 14 14 14 14 15 15 15 15 15 14 14 14 14 14 14 14 14 14 14 14 13 13 13 12 12 12 12 11 11 11 11 11 12 12 12 12
18 19 19 19 19 19 17 16 15 14 14 15 16 15 15 15 15 15 15 16 16 16 16 16 15 15 15 16 16 16 16 16 15 14 14 14 13 13 13 13 12 12 12 12 12 13 13 13 13
20 20 21 21 20 21 20 17 17 16 16 17 17 17 17 17 16 16 17 17 17 17 17 17 17 17 17 17 18 18 18 17 16 16 15 15 15 15 14 13 13 13 13 13 13 14 14 14 14

GEFSSGP_500_meanwind_252.txt.gz
Wind_Speed
3 3 3 2 2 1 1 1 1 1 1 1 1 1 1 2 2 3 3 3 3 3 3 3 4 4 5 5 5 5 5 5 6 6 6 6 7 8 8 9 9 10 10 10 10 10 10 10 9
3 2 2 2 2 1 1 1 1 1 1 1 2 2 2 3 3 4 4 4 4 4 4 4 4 4 5 5 5 5 6 6 5 5 5 6 6 7 8 8 9 9 10 10 10 10 10 10 10
2 2 2 1 2 1 2 2 1 2 2 2 2 3 3 3 4 4 5 5 5 5 5 5 4 4 4 5 5 6 6 5 5 6 6 6 7 7 7 8 9 9 10 10 11 11 11 11 11
2 2 2 1 1 1 2 2 2 2 3 3 3 3 3 3 4 4 5 5 5 5 5 5 5 5 5 4 4 4 5 6 6 6 6 7 7 8 8 8 8 9 10 10 10 10 10 11 11
2 2 2 1 1 2 2 3 3 3 3 3 3 3 4 3 4 4 5 5 5 5 5 5 5 5 5 5 4 4 5 5 6 6 6 7 8 8 9 10 9 10 10 10 11 11 11 11 12
2 2 2 1 2 3 3 3 3 3 4 4 4 4 4 4 4 5 5 5 6 5 6 5 5 5 5 4 4 5 5 5 6 6 6 7 8 9 9 10 10 10 11 11 11 11 12 11 12
2 2 2 2 2 3 3 4 3 4 4 4 5 5 4 4 5 5 5 6 6 6 5 5 5 5 5 5 5 5 5 6 6 7 7 7 8 9 9 10 10 10 11 10 11 11 12 12 12
2 2 2 2 3 3 4 4 4 4 4 5 5 5 5 5 5 5 5 5 5 5 6 6 5 5 5 5 5 5 6 6 6 7 7 8 8 8 9 9 9 10 10 10 10 11 12 12 12
2 2 2 3 3 4 4 4 4 4 4 4 4 4 5 5 5 5 5 5 5 6 6 6 6 5 5 5 6 6 6 7 7 7 7 8 8 8 8 8 9 9 9 9 10 10 11 12 11
2 3 3 3 4 4 4 4 4 4 4 4 4 4 4 4 4 5 5 5 6 6 6 6 6 6 6 6 6 6 6 6 6 7 7 7 7 8 8 8 8 8 9 10 10 11 11 11 11
3 3 4 4 4 4 4 4 3 3 4 4 4 4 4 5 5 5 5 6 6 6 7 6 6 6 6 6 6 6 6 6 6 6 6 7 7 8 8 8 8 8 9 10 10 11 11 11 10
3 4 4 4 4 4 3 4 3 3 3 4 4 4 4 5 5 5 6 6 6 7 7 7 7 7 7 6 6 7 7 7 7 7 7 7 7 7 8 9 9 9 9 10 10 10 10 10 10
3 4 4 4 4 4 3 4 4 4 4 4 4 5 5 6 6 6 6 6 7 7 7 7 7 7 7 6 6 6 6 7 7 7 7 7 7 7 8 8 8 9 9 9 9 9 9 9 9
3 4 4 3 3 3 3 4 4 4 4 5 5 6 6 6 6 6 6 6 6 7 7 7 7 7 7 7 6 7 7 7 7 7 7 7 7 8 7 7 8 8 8 8 9 9 8 9 9
4 4 4 4 4 4 4 4 5 5 5 6 6 6 6 6 6 6 6 6 6 6 6 6 7 7 7 7 7 7 7 7 7 7 7 6 7 7 7 7 7 8 9 8 8 9 8 9 9
5 5 5 5 5 5 5 5 6 6 6 6 6 6 6 6 6 6 6 7 7 7 7 7 7 8 8 7 7 7 7 7 7 7 6 6 6 7 7 7 7 8 8 8 8 8 8 8 9
6 6 6 5 5 5 6 6 6 6 6 6 6 6 7 6 6 6 6 7 7 7 7 7 8 8 8 7 7 7 7 6 6 6 6 6 6 7 7 8 8 7 7 7 7 8 8 9 10
7 6 6 6 6 6 6 7 7 7 7 7 6 6 6 6 6 6 7 7 7 7 8 8 8 8 8 7 7 7 7 7 6 6 6 7 7 8 8 8 8 7 7 8 8 9 9 10 10
8 7 7 7 7 6 7 7 8 8 7 7 6 7 7 7 7 7 7 7 7 7 8 8 8 8 7 7 7 7 7 7 7 7 7 8 8 8 8 8 8 8 8 8 8 9 10 10 10
9 9 8 8 8 8 8 8 8 8 8 7 7 7 7 7 7 7 7 8 8 8 8 8 9 8 8 8 8 8 8 8 8 7 8 8 9 9 9 8 8 9 9 9 9 9 9 10 11
11 10 10 10 9 9 10 9 9 9 9 8 7 7 7 8 8 7 8 8 8 8 9 9 9 9 9 9 10 9 8 8 8 8 9 9 9 10 10 10 10 9 9 9 10 10 9 9 10
11 10 10 10 10 10 10 10 9 9 9 9 9 8 8 8 8 8 9 9 9 9 9 9 9 10 10 10 10 10 9 9 9 9 10 10 10 10 11 11 10 10 9 9 9 9 9 9 9
11 11 11 11 11 11 11 11 10 10 10 10 10 9 9 9 9 9 10 10 10 10 10 10 10 11 11 11 11 10 10 10 10 10 11 11 11 11 11 10 10 10 9 9 9 9 9 8 8
12 11 11 11 11 11 10 11 10 11 11 11 11 11 10 11 10 10 11 11 11 11 11 11 11 11 11 11 11 11 11 11 11 11 11 11 11 11 11 10 10 10 9 9 9 9 9 9 9
12 12 12 11 11 12 12 12 12 11 12 12 12 12 11 11 11 11 11 11 11 12 12 12 12 12 12 12 12 12 12 12 12 12 12 12 12 12 11 11 11 10 10 9 10 10 9 9 8
12 12 13 13 13 13 13 13 13 12 13 13 13 12 12 11 12 12 12 12 12 13 13 13 13 13 13 13 13 13 13 13 13 13 13 13 13 13 12 12 12 11 10 10 10 10 10 9 9
13 13 14 14 14 15 14 13 13 13 13 13 13 13 13 12 13 13 13 13 13 14 14 14 14 14 14 14 14 14 14 14 14 13 14 14 14 13 13 13 12 11 11 11 11 11 11 11 10
15 15 15 15 16 16 15 14 15 15 14 14 14 15 15 14 13 14 14 14 14 15 15 14 14 14 14 14 14 15 15 15 15 15 15 15 14 14 13 13 12 12 11 11 11 11 11 11 11
17 17 17 17 17 17 17 16 15 16 16 16 16 16 16 15 15 15 15 15 16 16 16 16 16 16 16 16 16 16 16 16 16 16 16 16 15 15 15 14 14 13 13 12 12 11 11 12 12
19 19 19 19 19 19 19 19 17 17 17 17 17 17 17 16 16 17 17 17 17 17 17 18 18 18 17 17 18 18 18 18 18 18 18 17 17 16 16 16 15 15 15 15 14 14 13 14 14

GEFSSGP_500_meanwind_258.txt.gz
Wind_Speed
2 1 0 0 1 1 2 3 3 3 4 4 5 5 5 5 5 6 7 7 8 7 7 7 7 6 7 7 7 7 7 7 7 8 7 7 7 8 8 9 9 9 10 10 10 11 10 10 10
1 0 0 1 2 2 2 3 4 4 5 5 5 6 6 6 6 7 7 8 8 8 8 8 7 7 8 8 8 8 8 7 8 8 7 7 8 8 8 9 9 9 9 10 10 11 11 11 10
1 1 1 2 2 3 3 4 4 5 5 5 6 6 6 6 6 7 8 8 8 9 9 7 7 8 8 8 8 8 8 8 8 8 8 8 8 8 9 9 9 9 9 9 10 10 11 11 11
2 1 1 2 2 2 3 4 5 5 5 6 6 6 7 7 7 7 7 8 8 9 9 8 7 7 7 7 7 8 7 7 7 7 7 8 8 8 8 8 8 9 10 10 10 11 11 12 11
2 1 1 1 2 3 4 5 5 6 6 6 6 7 7 7 7 8 8 8 9 8 8 8 8 8 7 7 6 6 7 7 7 7 7 8 8 8 9 9 9 10 11 11 11 11 12 12 12
2 1 1 2 3 4 5 5 6 6 6 7 7 7 7 7 8 8 8 9 9 9 8 8 8 8 8 8 7 7 6 6 6 7 7 8 8 9 9 10 11 11 11 11 11 12 12 11 11
2 2 2 3 4 4 5 6 6 6 7 7 7 7 7 8 8 8 8 9 9 9 8 8 8 8 8 8 8 8 7 7 7 7 8 8 8 9 9 9 11 12 12 12 11 11 11 11 11
2 2 2 4 4 4 5 6 6 6 7 7 8 8 7 7 7 8 8 9 9 9 9 8 8 8 8 8 8 9 8 7 7 8 8 8 9 9 10 10 10 10 11 11 11 11 11 11 12
3 3 4 4 4 5 5 5 6 7 7 7 7 8 8 8 7 8 9 9 9 9 9 9 9 8 7 7 8 8 8 7 8 9 9 9 9 9 9 9 9 9 10 10 11 11 11 11 11
3 4 4 5 5 5 5 5 6 6 6 7 7 7 7 8 8 8 9 9 9 9 9 9 9 8 7 7 8 8 7 7 8 9 9 9 9 9 9 8 9 9 10 10 10 11 11 12 12
4 4 5 5 5 5 5 5 5 6 6 6 7 7 7 8 8 8 8 8 9 9 9 9 9 8 8 8 8 8 8 8 9 9 9 9 9 9 9 9 9 10 11 11 11 11 10 11 11
4 4 5 5 5 5 5 5 5 6 6 6 7 7 7 8 8 8 8 8 9 8 9 9 9 9 9 9 9 8 8 8 9 10 10 9 9 9 10 10 10 10 10 10 10 10 10 10 10
4 5 5 5 5 5 5 5 5 6 6 7 7 8 8 8 8 8 8 8 8 9 9 9 9 9 10 9 9 8 9 9 9 9 9 9 10 10 10 10 10 10 11 12 12 11 10 11 11
5 5 5 5 5 5 5 5 6 6 7 7 8 8 8 8 8 8 8 8 9 9 9 9 10 10 10 10 9 9 9 9 9 10 10 10 9 10 10 10 10 11 11 12 11 11 11 11 10
6 6 6 6 6 6 6 6 6 7 7 8 9 8 8 8 8 8 8 8 9 9 9 9 10 10 10 10 10 10 9 9 9 9 10 10 10 10 10 10 10 11 11 11 11 12 11 11 11
6 7 6 6 7 8 7 7 7 7 8 8 8 8 8 8 8 9 9 8 9 9 9 9 10 10 10 10 10 10 10 9 9 9 9 9 9 10 10 10 10 10 11 11 12 12 11 11 11
7 7 7 8 8 8 8 8 7 8 9 9 9 8 8 8 8 9 9 9 9 10 10 9 10 10 10 10 10 10 10 10 9 9 9 10 10 10 10 11 10 10 11 12 12 12 12 12 12
7 8 8 9 9 9 9 9 8 9 9 9 9 9 9 8 9 10 10 10 9 10 10 10 10 10 10 10 10 10 10 10 9 9 9 10 10 10 11 11 10 10 11 11 12 11 10 10 10
9 9 10 10 10 10 10 10 9 9 9 9 9 9 9 10 10 10 10 10 10 10 11 11 10 10 10 10 10 10 10 10 10 9 9 10 10 10 11 11 10 10 10 10 10 10 9 9 10
10 11 11 12 11 11 11 10 10 10 10 10 10 10 10 10 10 10 10 10 10 10 11 11 10 10 10 10 10 10 10 10 10 10 10 10 10 11 11 11 11 11 10 10 9 9 9 9 10
12 11 12 13 12 12 11 11 11 11 11 11 11 11 11 11 11 10 10 10 11 11 11 12 11 11 11 12 12 11 11 11 10 10 11 10 11 12 12 12 12 11 11 10 10 9 9 9 9
13 12 12 13 13 12 12 12 12 12 12 11 11 12 12 12 12 12 11 11 11 12 12 12 12 12 12 12 12 11 11 11 11 11 11 11 12 13 13 12 12 12 11 11 10 9 9 9 8
13 13 12 12 13 13 12 13 12 13 14 13 13 13 13 13 14 13 13 12 12 12 13 13 12 12 13 13 13 12 12 12 12 12 12 12 13 13 13 12 12 12 12 11 9 9 8 8 8
12 12 12 12 12 13 12 13 14 14 15 15 14 14 14 14 14 14 14 13 13 13 13 13 13 13 14 14 14 14 13 13 13 13 13 13 13 13 13 13 12 12 11 10 10 9 9 9 9
12 12 12 12 11 12 13 15 16 16 16 16 16 16 15 15 15 14 14 14 14 14 14 14 14 14 14 14 14 15 15 15 14 14 14 14 14 13 13 13 13 12 11 10 11 10 10 10 10
12 13 13 12 11 12 14 16 17 17 17 17 18 18 17 17 16 16 15 15 15 15 15 15 15 15 16 16 16 16 16 16 16 15 15 15 15 14 14 13 13 12 12 12 11 12 11 11 11
15 15 14 14 14 15 15 16 17 17 18 18 18 19 18 18 18 18 17 17 16 16 16 16 16 17 17 17 17 17 17 17 16 16 16 16 16 15 15 14 14 14 13 13 13 13 12 12 12
16 16 15 15 16 15 14 16 19 18 19 19 18 19 19 19 19 19 18 18 18 17 17 17 18 18 18 18 18 18 18 18 18 17 17 17 17 17 17 15 15 15 14 14 14 14 14 14 13
17 17 17 17 17 16 16 18 20 21 21 21 21 20 20 19 19 19 19 19 19 19 19 19 18 18 19 19 19 19 19 19 19 18 19 18 18 18 18 17 16 16 15 15 15 15 16 15 15
18 18 18 18 18 18 18 21 21 23 23 23 22 21 21 21 20 20 20 20 20 20 20 20 20 20 20 20 20 20 20 20 20 20 19 20 19 19 19 18 18 17 17 17 17 17 17 17 16

GEFSSGP_500_meanwind_264.txt.gz
Wind_Speed
1 1 1 0 0 0 0 1 2 2 2 2 3 3 3 4 4 5 5 5 5 5 5 5 5 5 6 6 6 6 6 6 7 8 8 8 8 8 8 9 9 8 8 9 9 10 10 10 11
1 1 1 0 1 1 1 1 1 2 2 2 3 3 4 4 5 5 6 6 6 5 6 6 5 5 5 6 6 7 7 7 7 8 8 8 8 8 9 9 9 9 9 9 9 9 10 10 10
1 0 1 1 1 1 1 1 2 2 2 3 3 4 4 5 5 6 6 6 6 6 6 5 5 5 5 5 6 6 6 7 7 7 8 8 7 8 8 9 9 9 9 9 9 10 10 10 10
1 1 2 2 2 1 2 1 2 3 3 3 4 5 5 5 6 6 6 6 7 7 6 6 5 5 5 6 6 6 7 7 7 7 7 7 7 8 8 8 8 8 9 10 10 10 10 11 11
1 1 2 3 2 1 1 1 2 3 4 4 5 5 5 5 5 5 6 6 6 6 6 7 6 5 4 5 6 6 6 6 6 6 7 7 8 8 8 8 8 8 9 9 10 10 10 11 11
1 2 2 2 2 2 2 2 3 3 4 5 5 5 5 5 5 5 6 6 6 6 6 6 7 6 5 4 5 5 4 4 5 5 6 6 6 7 6 7 8 8 8 8 8 9 9 10 10
1 2 2 2 2 3 3 3 3 3 4 4 4 4 5 5 5 5 6 6 6 6 6 6 6 5 5 4 5 5 5 4 3 4 4 5 5 6 7 7 7 7 8 8 8 9 9 9 10
2 2 2 2 2 3 3 3 3 3 4 4 4 4 5 5 5 5 6 6 6 6 6 6 5 5 5 5 5 5 5 4 4 4 4 5 5 6 7 7 7 7 8 8 9 9 9 9 10
3 3 3 3 3 2 2 3 4 4 4 4 4 4 4 5 5 5 5 5 5 5 5 6 5 5 5 5 4 5 4 4 5 5 5 6 6 5 6 7 7 7 7 8 8 8 9 10 10
3 3 3 3 2 2 2 3 3 3 4 4 4 4 5 6 6 5 4 4 5 5 5 6 5 5 5 5 5 5 5 5 5 6 6 6 6 6 5 6 7 7 7 8 8 9 9 10 10
4 3 2 2 2 2 3 3 3 3 3 4 4 4 4 5 6 5 5 5 5 5 5 5 6 5 5 5 5 5 5 5 5 6 6 6 6 6 6 6 6 6 6 7 7 8 8 9 10
4 3 3 2 2 2 3 3 3 2 3 4 5 5 4 5 5 5 5 5 5 5 5 6 6 5 5 5 5 5 5 5 6 6 6 6 6 5 6 6 6 6 6 7 7 7 7 8 8
4 4 3 3 3 3 3 3 3 2 3 4 4 5 5 4 5 5 5 5 5 5 6 6 6 6 5 5 5 5 6 6 5 5 6 6 6 6 6 6 7 7 7 7 7 8 8 8 8
4 4 4 3 3 3 2 3 3 3 3 4 4 4 4 4 5 5 5 6 5 6 6 6 6 6 6 6 6 6 6 6 5 5 6 6 6 6 6 6 7 7 7 7 8 9 8 8 8
5 5 5 4 4 4 3 3 3 3 4 4 5 5 5 4 5 5 5 6 5 6 6 6 6 6 6 6 6 6 6 6 6 6 6 6 6 6 6 6 7 7 7 8 8 9 9 9 9
6 6 6 5 5 5 4 4 4 4 4 4 5 6 5 5 5 5 5 6 6 6 6 6 6 6 7 6 6 6 6 6 6 7 6 6 6 6 6 7 7 8 8 9 9 9 10 10 10
7 7 6 6 6 5 5 5 5 5 5 5 5 6 5 5 5 6 6 6 6 6 7 7 7 7 7 6 6 6 6 7 7 7 7 7 7 7 7 7 8 8 8 9 10 10 10 10 10
7 7 7 7 7 7 7 6 6 6 6 5 5 6 6 5 6 6 7 7 7 7 7 7 7 7 7 7 7 7 7 7 7 7 7 7 7 7 8 8 8 8 9 9 10 10 10 10 10
8 7 8 8 7 8 7 7 7 6 6 6 6 6 6 6 6 7 7 8 8 7 7 7 7 7 8 8 7 8 8 7 7 8 7 7 7 7 8 8 9 9 9 9 9 9 9 9 9
8 8 8 7 8 8 8 7 7 6 6 6 6 6 7 7 7 7 7 7 8 8 8 8 8 8 8 8 8 9 8 8 8 8 8 8 9 9 8 9 9 9 8 8 9 9 9 9 9
8 8 8 8 8 8 9 8 7 6 7 7 6 6 7 7 7 7 8 8 8 8 9 9 9 9 9 10 9 9 9 8 9 9 9 9 9 9 9 10 10 10 9 9 9 9 9 9 8
8 8 8 8 9 8 9 8 7 6 6 6 6 6 7 8 8 8 8 9 9 9 9 9 10 10 10 10 10 10 10 10 10 10 10 10 10 10 10 9 10 10 10 9 9 8 8 8 8
8 8 8 9 10 9 10 10 8 7 6 7 7 8 8 8 9 9 9 9 10 10 10 10 11 10 10 11 11 11 11 11 11 12 11 11 10 10 10 10 10 10 10 10 9 8 8 8 8
9 9 9 10 11 11 11 11 9 9 8 8 8 9 10 10 10 11 11 11 11 11 11 11 11 12 12 12 13 13 13 13 13 12 12 13 12 11 11 11 11 11 11 10 9 8 8 8 8
11 11 11 11 11 11 11 12 11 10 10 10 10 11 11 12 12 13 13 12 12 12 12 13 13 13 13 14 14 15 14 15 14 14 14 14 13 13 12 11 11 11 11 10 10 9 9 9 9
12 12 13 13 13 12 12 13 13 12 12 12 12 12 13 13 14 14 14 14 14 13 14 14 14 15 15 15 16 16 16 16 15 15 15 14 14 14 13 12 12 12 11 11 11 11 11 10 10
13 13 14 14 14 14 14 14 14 14 13 14 14 13 14 15 15 16 16 16 16 16 16 16 16 16 17 17 17 17 16 16 16 16 16 15 15 15 14 14 14 14 13 12 11 11 12 12 12
14 14 14 15 15 16 16 16 16 15 16 16 15 15 16 16 16 16 16 17 17 17 18 18 18 17 17 17 17 17 17 17 17 17 17 16 16 16 16 15 15 15 15 14 13 13 13 13 13
15 15 15 16 16 17 17 18 17 17 17 17 16 16 17 17 17 17 17 17 18 18 19 19 19 18 18 18 18 18 18 18 18 18 18 18 17 17 18 17 17 17 16 16 15 15 15 16 15
16 16 16 16 16 18 19 18 19 19 18 17 18 18 17 18 18 18 18 18 18 19 19 19 19 19 19 19 19 19 19 18 18 19 19 19 19 19 19 19 18 18 18 18 17 17 18 18 18

GEFSSGP_500_meanwind_270.txt.gz
Wind_Speed
0 1 2 2 2 2 2 3 3 3 3 3 4 4 4 5 5 5 5 5 5 6 6 5 5 5 5 6 6 6 6 6 6 6 6 6 7 7 7 7 7 7 7 7 8 9 9 9 10
1 2 2 2 1 1 2 2 2 3 3 3 4 4 4 5 5 6 5 5 6 6 5 5 5 5 6 6 6 6 6 6 6 6 6 6 7 8 8 8 7 7 7 8 8 8 9 10 10
2 2 2 2 2 2 2 2 3 3 3 4 4 4 4 5 5 5 6 6 6 6 5 5 5 6 6 6 6 5 6 6 6 6 5 6 7 8 8 7 7 7 8 8 8 9 9 9 10
2 3 3 2 2 2 2 3 3 4 4 4 4 4 4 5 5 6 6 6 6 5 5 4 5 5 5 5 5 5 5 5 5 5 5 6 7 8 7 7 8 8 9 8 8 9 9 9 9
3 3 3 2 2 3 3 3 3 4 4 4 4 4 4 5 6 6 6 6 5 5 4 4 4 5 4 5 5 5 5 5 5 5 5 6 7 7 7 7 8 8 9 8 8 9 9 10 9
3 3 3 3 3 3 3 4 4 3 3 3 4 4 4 5 6 6 6 5 5 5 5 5 4 3 4 4 4 4 4 4 5 5 6 7 8 8 8 7 7 7 8 8 8 9 9 9 10
3 3 4 4 3 3 4 3 3 3 4 4 4 4 4 5 5 5 5 6 5 5 5 5 4 3 3 3 4 3 3 3 4 5 5 6 7 7 8 8 8 8 8 8 8 9 9 10 10
4 4 4 4 3 3 3 3 3 4 4 3 4 4 4 4 5 5 5 5 5 5 5 5 4 4 4 4 4 3 3 4 4 4 5 6 5 7 7 8 8 8 8 8 8 9 9 9 10
4 4 4 4 4 3 3 4 4 4 3 3 3 4 4 4 4 5 5 5 5 5 5 5 4 4 4 4 4 4 4 4 4 5 5 4 4 5 6 7 7 7 8 8 9 9 9 9 10
4 4 4 4 4 4 3 4 4 3 3 3 3 4 4 4 4 4 5 5 5 5 5 5 4 4 4 4 4 4 4 4 5 5 6 5 4 4 5 5 5 7 7 8 9 9 9 10 10
5 4 4 4 4 4 4 4 4 3 3 3 3 3 3 3 4 5 5 4 4 5 5 5 4 4 4 4 4 4 4 5 5 6 6 6 5 4 5 5 5 6 7 8 9 10 10 10 10
6 5 5 5 4 3 3 4 3 3 2 2 2 3 3 3 4 4 4 4 4 4 5 5 4 4 4 4 5 5 5 5 6 6 5 6 5 5 6 6 6 6 7 8 9 9 9 9 10
7 6 6 6 5 4 4 4 4 3 3 2 3 3 3 4 4 4 4 4 4 4 4 5 5 5 4 4 5 5 5 6 6 6 5 5 5 5 6 7 6 6 7 8 9 9 9 10 10
7 7 7 7 6 6 5 4 4 3 3 3 3 3 3 3 3 3 3 4 4 4 4 5 5 5 5 5 5 6 6 6 6 6 6 6 6 6 6 7 7 7 7 8 9 9 9 10 10
8 8 8 8 7 6 6 5 4 4 4 3 4 4 4 4 4 4 4 4 4 4 5 5 5 5 5 6 5 5 6 6 7 7 7 7 7 7 7 7 7 7 7 8 9 9 9 9 10
9 9 8 8 7 7 6 5 5 5 5 4 4 4 5 5 5 4 4 4 4 5 5 5 5 6 6 6 6 6 6 7 7 7 7 7 8 8 8 8 8 8 8 8 9 9 9 9 10
9 9 8 8 7 7 7 6 6 6 6 5 5 4 5 5 5 5 5 5 5 5 5 6 6 6 6 6 6 6 7 8 8 8 8 9 9 9 9 9 9 9 9 9 9 9 9 9 9
9 9 8 8 8 7 8 7 8 7 6 6 6 5 6 6 6 5 5 5 5 5 5 6 6 7 7 7 7 7 7 8 8 9 9 10 10 9 9 9 9 9 9 9 9 9 9 9 9
9 9 8 8 8 8 8 8 9 8 7 7 7 6 6 6 6 6 6 6 6 6 7 7 7 7 7 8 8 8 8 8 9 9 10 11 10 10 10 10 10 10 9 10 9 9 9 8 9
10 10 9 9 9 8 8 8 9 8 8 8 7 7 6 6 6 6 6 6 6 7 7 8 7 8 8 9 9 10 10 10 10 11 11 11 11 11 11 11 10 10 9 10 10 9 9 9 9
11 10 10 10 9 9 9 9 9 9 9 8 8 7 7 7 7 7 7 7 7 7 8 8 9 9 10 10 10 11 12 12 12 11 11 11 11 12 12 11 11 11 10 10 10 10 10 10 10
11 11 11 11 11 10 10 9 8 8 8 9 9 8 7 7 7 8 8 8 8 8 8 9 9 10 11 11 12 12 12 13 12 12 12 12 12 12 12 12 12 11 11 11 11 11 10 10 10
11 11 11 11 11 10 10 10 9 9 8 9 10 9 9 8 8 9 9 9 9 9 9 9 10 11 12 12 12 12 13 12 12 12 12 12 12 13 13 13 13 12 12 11 11 11 12 12 12
11 11 11 11 11 11 10 10 9 9 9 9 9 9 10 10 10 10 10 10 10 11 11 11 11 12 13 13 13 13 13 13 13 13 13 13 13 13 13 13 13 13 13 13 12 12 13 13 12
12 12 12 12 12 12 11 11 10 10 11 11 11 11 12 12 11 12 12 12 12 12 12 12 13 13 14 14 14 14 14 14 15 15 15 15 14 14 14 13 13 14 14 13 13 14 13 13 13
12 12 13 13 13 13 13 13 12 12 12 13 13 13 13 14 14 14 14 14 14 13 14 14 14 14 15 15 15 14 15 15 16 16 16 15 15 15 14 14 14 14 15 14 14 14 14 14 14
13 13 14 14 14 14 14 14 14 13 13 14 15 15 15 15 16 16 16 16 15 15 15 16 16 16 16 16 16 16 16 16 16 16 16 16 16 15 15 15 15 15 15 15 15 16 15 15 16
15 14 15 16 16 16 15 15 15 15 15 15 16 17 17 17 17 17 17 17 17 17 17 17 17 17 17 17 17 17 17 18 17 17 17 17 17 17 16 16 16 16 16 16 16 16 16 17 17
16 15 16 17 17 17 17 16 16 16 17 17 17 18 18 18 18 18 18 18 18 18 18 18 18 19 18 18 18 19 19 19 19 19 19 19 19 18 18 18 17 17 17 17 17 17 17 17 17
17 16 16 17 17 18 18 18 17 17 17 18 18 19 19 19 19 19 19 19 19 19 19 19 19 20 20 19 19 19 20 20 20 20 19 20 20 20 20 19 19 19 18 18 18 18 18 18 18

GEFSSGP_500_meanwind_276.txt.gz
Wind_Speed
1 1 1 1 1 1 2 2 2 1 2 2 2 2 2 2 2 2 2 3 3 4 4 5 5 5 5 5 5 6 6 7 6 7 7 8 8 7 7 7 7 8 8 7 7 7 7 7 8
2 1 1 1 1 2 2 2 2 2 2 2 2 2 2 2 2 2 2 2 2 3 5 5 6 5 5 5 5 6 6 7 7 7 7 8 8 8 8 7 8 8 8 8 8 8 7 7 8
2 1 1 0 0 2 2 2 2 2 2 2 2 2 2 2 3 3 2 2 3 3 4 5 5 4 4 5 6 6 6 6 7 7 8 8 8 8 8 8 8 8 9 9 8 7 8 8 8
2 1 1 0 1 1 1 2 2 2 2 2 2 2 2 2 2 2 3 3 3 3 3 3 4 4 4 5 5 5 5 6 6 7 7 8 8 8 9 10 9 9 9 8 8 8 8 8 8
1 1 0 1 1 1 2 2 2 2 2 2 2 2 2 2 2 3 3 3 2 3 3 3 4 4 4 4 4 5 5 5 6 7 7 7 7 9 10 10 9 9 9 9 9 9 9 9 9
1 0 1 1 2 2 2 2 2 2 2 2 2 2 2 2 2 3 3 3 2 2 3 3 3 3 4 4 4 4 4 5 5 6 7 8 8 8 9 10 10 10 10 10 10 9 9 9 9
0 1 1 2 2 2 2 2 2 2 2 2 2 2 2 2 2 2 3 3 2 2 2 2 2 2 2 3 3 4 4 4 5 6 7 7 8 8 9 9 9 10 10 9 9 9 8 9 9
1 1 1 2 2 2 2 2 3 2 2 2 2 2 2 2 2 2 2 3 2 3 3 3 2 2 2 2 3 3 3 4 5 5 6 7 7 8 8 9 8 9 9 9 9 9 8 9 9
2 2 2 2 2 2 2 3 3 2 2 2 2 3 3 2 2 2 2 3 3 3 3 3 2 2 2 2 3 3 3 3 4 5 6 6 7 7 8 8 8 8 9 9 8 8 8 8 9
2 2 2 2 2 2 3 3 2 2 2 2 2 2 3 2 2 2 2 2 3 3 2 2 2 2 3 3 3 2 3 3 4 5 5 6 6 6 5 6 7 7 8 8 8 8 8 8 9
2 2 2 2 2 2 2 2 2 1 1 2 2 2 2 2 3 3 3 2 3 2 2 2 2 2 3 3 3 3 3 3 3 4 4 5 5 5 5 5 5 6 7 7 8 9 9 9 9
4 4 3 3 3 2 2 2 1 1 2 2 2 2 3 3 3 3 3 3 2 2 2 2 2 3 3 3 4 4 4 4 4 4 4 4 5 5 5 6 6 6 6 7 8 9 9 10 10
4 4 4 4 4 4 3 3 3 3 3 3 2 3 3 3 3 3 3 3 3 2 3 3 3 3 3 4 4 4 4 4 4 4 3 4 5 5 6 6 6 7 7 8 8 9 9 10 10
5 5 5 5 5 5 5 5 4 4 4 4 4 4 4 4 4 4 3 3 3 3 3 3 3 3 4 4 4 4 4 4 4 4 4 4 5 5 6 6 7 7 7 8 9 9 10 10 10
6 7 6 6 6 6 6 6 5 5 5 4 4 4 4 4 4 4 4 3 4 4 3 3 3 4 4 4 4 5 4 4 4 5 5 5 5 6 6 6 7 7 8 8 9 9 9 9 10
7 7 7 6 6 6 6 6 6 6 5 5 5 5 5 5 5 5 4 4 4 4 4 4 4 5 5 5 5 5 5 5 5 6 6 6 6 7 7 7 7 8 8 8 8 9 9 9 9
7 7 7 7 7 7 7 7 7 6 6 6 5 6 6 6 5 5 4 4 5 5 5 5 5 5 6 6 6 6 6 6 7 8 8 8 7 7 8 8 8 8 8 8 9 9 9 9 10
7 7 7 7 7 7 7 7 7 7 6 6 7 6 7 7 7 6 5 5 5 5 6 6 6 6 6 6 7 7 8 8 8 8 9 9 9 9 9 9 9 8 8 9 9 9 9 9 10
8 8 8 8 8 8 8 7 7 7 7 7 7 7 7 7 7 7 6 6 7 7 7 7 7 7 7 7 7 8 9 9 9 9 9 9 9 9 9 9 9 9 9 9 9 9 10 10 10
9 9 9 9 9 9 9 9 8 8 8 7 8 8 8 8 8 8 7 7 7 7 8 8 8 9 9 8 9 10 10 10 10 10 10 10 10 9 9 9 9 9 9 9 10 10 10 11 10
9 9 10 9 9 10 10 10 10 10 9 8 8 8 9 9 9 9 9 9 9 9 8 9 9 9 10 10 11 11 11 11 11 11 12 11 11 10 10 10 10 10 10 10 10 10 10 11 11
10 10 10 10 10 10 10 11 10 10 9 9 9 9 9 10 10 10 10 10 10 10 10 10 10 11 11 12 12 12 12 12 12 13 13 12 11 11 11 11 11 11 11 11 11 12 12 12 12
10 10 10 10 11 11 11 11 11 11 11 10 10 10 10 11 11 11 11 11 11 12 12 12 12 12 12 12 12 12 13 13 13 14 14 13 12 12 12 12 12 12 12 13 13 12 13 13 13
11 11 10 11 11 12 11 12 11 11 11 11 10 11 11 11 12 12 12 12 12 13 13 13 14 13 13 13 13 13 13 13 14 14 14 14 13 13 13 13 13 13 13 14 14 13 13 14 14
11 11 11 11 12 13 12 13 12 11 12 12 12 12 12 13 13 13 13 13 14 14 15 15 15 15 15 15 15 15 15 14 14 14 15 14 14 14 14 14 14 14 14 15 15 14 13 13 14
12 12 12 13 13 13 13 14 13 12 12 13 13 13 13 14 14 14 14 15 15 15 16 16 16 16 16 16 16 16 16 15 15 15 15 15 16 16 16 16 16 16 15 15 15 15 15 14 15
13 13 12 13 13 13 14 14 13 12 13 14 14 14 15 15 15 15 16 15 16 16 17 17 17 16 17 17 17 17 17 17 17 17 17 17 16 16 17 17 16 16 16 16 16 16 17 16 16
14 13 13 13 14 14 15 14 13 13 13 14 14 15 15 15 15 16 16 16 17 17 17 18 17 18 18 18 18 18 18 18 18 18 18 18 18 17 17 17 17 17 17 17 17 17 17 17 17
15 14 14 15 15 15 15 16 14 14 14 14 15 15 16 16 16 16 17 18 18 18 18 18 18 18 18 19 19 19 19 20 19 19 20 19 19 19 19 18 18 18 18 18 18 18 17 18 18
16 16 16 16 16 15 16 16 15 15 15 15 15 16 16 17 17 18 18 19 19 19 19 19 19 19 19 19 20 21 21 21 21 21 21 21 20 20 20 20 19 19 19 19 19 19 18 19 19